Wetterdaten: Mittwoch, 28.10.2020
Datum Zeit Temp. Aussen Temp. o. S. Temp +5cm Feuchte Auss Luftdruck Regen Sonnenschein Regendauer Solar Windben Empfang
28.10.2020 00:00 11,8 C 10,6 C 9,5 C 91 % 1003,3 hPa 0,0 l/m 0 min 0 min 0 W/m 22,5 km/h (4 Bft) 97,87 %
28.10.2020 00:02 11,9 C 10,6 C 10,0 C 91 % 1003,2 hPa 0,0 l/m 0 min 0 min 0 W/m 19,3 km/h (3 Bft) 100,00 %
28.10.2020 00:04 11,9 C 10,6 C 10,0 C 91 % 1003,2 hPa 0,0 l/m 0 min 0 min 0 W/m 35,4 km/h (5 Bft) 97,67 %
28.10.2020 00:08 11,9 C 10,6 C 10,0 C 91 % 1003,2 hPa 0,0 l/m 0 min 0 min 0 W/m 32,2 km/h (5 Bft) 100,00 %
28.10.2020 00:10 11,9 C 10,6 C 9,5 C 91 % 1003,2 hPa 0,0 l/m 0 min 0 min 0 W/m 22,5 km/h (4 Bft) 97,87 %
28.10.2020 00:12 11,9 C 10,6 C 9,5 C 91 % 1003,2 hPa 0,0 l/m 0 min 0 min 0 W/m 19,3 km/h (3 Bft) 100,00 %
28.10.2020 00:14 11,9 C 10,6 C 9,5 C 91 % 1003,3 hPa 0,0 l/m 0 min 0 min 0 W/m 25,7 km/h (4 Bft) 100,00 %
28.10.2020 00:16 11,9 C 10,6 C 9,5 C 91 % 1003,4 hPa 0,0 l/m 0 min 0 min 0 W/m 16,1 km/h (3 Bft) 100,00 %
28.10.2020 00:18 11,8 C 10,6 C 10,0 C 91 % 1003,4 hPa 0,0 l/m 0 min 0 min 0 W/m 41,8 km/h (6 Bft) 100,00 %
28.10.2020 00:20 11,8 C 10,6 C 10,0 C 91 % 1003,4 hPa 0,0 l/m 0 min 0 min 0 W/m 22,5 km/h (4 Bft) 97,83 %
28.10.2020 00:22 11,8 C 10,6 C 10,0 C 91 % 1003,4 hPa 0,0 l/m 0 min 0 min 0 W/m 32,2 km/h (5 Bft) 100,00 %
28.10.2020 00:24 11,8 C 10,6 C 10,0 C 91 % 1003,4 hPa 0,0 l/m 0 min 0 min 0 W/m 35,4 km/h (5 Bft) 100,00 %
28.10.2020 00:26 11,8 C 10,6 C 10,0 C 91 % 1003,4 hPa 0,0 l/m 0 min 0 min 0 W/m 35,4 km/h (5 Bft) 100,00 %
28.10.2020 00:28 11,8 C 11,1 C 10,0 C 91 % 1003,5 hPa 0,0 l/m 0 min 0 min 0 W/m 32,2 km/h (5 Bft) 100,00 %
28.10.2020 00:30 11,8 C 11,1 C 10,0 C 90 % 1003,5 hPa 0,0 l/m 0 min 0 min 0 W/m 22,5 km/h (4 Bft) 100,00 %
28.10.2020 00:32 11,9 C 11,1 C 10,0 C 90 % 1003,4 hPa 0,0 l/m 0 min 0 min 0 W/m 22,5 km/h (4 Bft) 100,00 %
28.10.2020 00:34 11,9 C 11,1 C 10,0 C 90 % 1003,5 hPa 0,0 l/m 0 min 0 min 0 W/m 29,0 km/h (5 Bft) 97,87 %
28.10.2020 00:36 11,9 C 11,1 C 10,0 C 90 % 1003,5 hPa 0,0 l/m 0 min 0 min 0 W/m 19,3 km/h (3 Bft) 100,00 %
28.10.2020 00:38 11,9 C 11,1 C 10,0 C 90 % 1003,5 hPa 0,0 l/m 0 min 0 min 0 W/m 29,0 km/h (5 Bft) 100,00 %
28.10.2020 00:40 11,9 C 11,7 C 10,6 C 90 % 1003,5 hPa 0,0 l/m 0 min 0 min 0 W/m 38,6 km/h (5 Bft) 100,00 %
28.10.2020 00:42 12,0 C 11,7 C 10,6 C 90 % 1003,6 hPa 0,0 l/m 0 min 0 min 0 W/m 25,7 km/h (4 Bft) 100,00 %
28.10.2020 00:44 12,0 C 11,7 C 10,6 C 90 % 1003,7 hPa 0,0 l/m 0 min 0 min 0 W/m 22,5 km/h (4 Bft) 100,00 %
28.10.2020 00:46 12,0 C 11,7 C 10,6 C 90 % 1003,6 hPa 0,0 l/m 0 min 0 min 0 W/m 19,3 km/h (3 Bft) 100,00 %
28.10.2020 00:48 12,0 C 11,7 C 10,6 C 90 % 1003,6 hPa 0,0 l/m 0 min 0 min 0 W/m 22,5 km/h (4 Bft) 100,00 %
28.10.2020 00:50 12,1 C 11,7 C 10,6 C 90 % 1003,7 hPa 0,0 l/m 0 min 0 min 0 W/m 41,8 km/h (6 Bft) 100,00 %
28.10.2020 00:52 12,1 C 11,7 C 10,6 C 90 % 1003,7 hPa 0,0 l/m 0 min 0 min 0 W/m 35,4 km/h (5 Bft) 100,00 %
28.10.2020 00:54 12,2 C 11,7 C 10,6 C 89 % 1003,8 hPa 0,0 l/m 0 min 0 min 0 W/m 19,3 km/h (3 Bft) 100,00 %
28.10.2020 00:56 12,2 C 11,7 C 10,6 C 89 % 1003,9 hPa 0,0 l/m 0 min 0 min 0 W/m 29,0 km/h (5 Bft) 100,00 %
28.10.2020 00:58 12,3 C 11,7 C 10,6 C 89 % 1003,8 hPa 0,0 l/m 0 min 0 min 0 W/m 16,1 km/h (3 Bft) 97,96 %
28.10.2020 01:00 12,3 C 11,7 C 10,6 C 89 % 1003,8 hPa 0,0 l/m 0 min 0 min 0 W/m 32,2 km/h (5 Bft) 100,00 %
28.10.2020 01:02 12,3 C 11,7 C 10,6 C 89 % 1003,8 hPa 0,0 l/m 0 min 0 min 0 W/m 48,3 km/h (6 Bft) 100,00 %
28.10.2020 01:04 12,3 C 11,7 C 10,6 C 89 % 1004,0 hPa 0,0 l/m 0 min 0 min 0 W/m 22,5 km/h (4 Bft) 98,00 %
28.10.2020 01:06 12,4 C 11,7 C 10,6 C 89 % 1004,1 hPa 0,0 l/m 0 min 0 min 0 W/m 25,7 km/h (4 Bft) 97,92 %
28.10.2020 01:08 12,4 C 11,7 C 10,6 C 89 % 1004,0 hPa 0,0 l/m 0 min 0 min 0 W/m 25,7 km/h (4 Bft) 97,87 %
28.10.2020 01:10 12,4 C 11,7 C 10,6 C 90 % 1004,0 hPa 0,0 l/m 0 min 0 min 0 W/m 41,8 km/h (6 Bft) 97,87 %
28.10.2020 01:12 12,4 C 11,7 C 10,6 C 89 % 1004,1 hPa 0,0 l/m 0 min 0 min 0 W/m 29,0 km/h (5 Bft) 95,74 %
28.10.2020 01:14 12,4 C 11,7 C 10,6 C 90 % 1004,2 hPa 0,0 l/m 0 min 0 min 0 W/m 32,2 km/h (5 Bft) 93,75 %
28.10.2020 01:16 12,4 C 11,1 C 10,0 C 90 % 1004,0 hPa 0,0 l/m 0 min 0 min 0 W/m 25,7 km/h (4 Bft) 93,62 %
28.10.2020 01:18 12,4 C 11,1 C 10,0 C 90 % 1004,2 hPa 0,0 l/m 0 min 0 min 0 W/m 22,5 km/h (4 Bft) 95,74 %
28.10.2020 01:20 12,4 C 11,1 C 10,0 C 90 % 1004,1 hPa 0,0 l/m 0 min 0 min 0 W/m 25,7 km/h (4 Bft) 95,65 %
28.10.2020 01:22 12,3 C 11,1 C 10,0 C 90 % 1004,1 hPa 0,0 l/m 0 min 0 min 0 W/m 22,5 km/h (4 Bft) 95,74 %
28.10.2020 01:24 12,3 C 11,1 C 10,0 C 91 % 1004,1 hPa 0,0 l/m 0 min 0 min 0 W/m 19,3 km/h (3 Bft) 93,75 %
28.10.2020 01:26 12,3 C 11,1 C 10,0 C 91 % 1004,2 hPa 0,0 l/m 0 min 0 min 0 W/m 16,1 km/h (3 Bft) 93,75 %
28.10.2020 01:28 12,3 C 11,1 C 10,0 C 91 % 1004,1 hPa 0,0 l/m 0 min 0 min 0 W/m 19,3 km/h (3 Bft) 95,74 %
28.10.2020 01:30 12,2 C 11,1 C 10,0 C 91 % 1004,2 hPa 0,0 l/m 0 min 0 min 0 W/m 12,9 km/h (3 Bft) 95,65 %
28.10.2020 01:32 12,2 C 11,1 C 10,0 C 91 % 1004,3 hPa 0,0 l/m 0 min 0 min 0 W/m 12,9 km/h (3 Bft) 95,83 %
28.10.2020 01:34 12,1 C 11,1 C 10,0 C 91 % 1004,3 hPa 0,0 l/m 0 min 0 min 0 W/m 19,3 km/h (3 Bft) 95,74 %
28.10.2020 01:36 12,1 C 11,1 C 10,0 C 91 % 1004,3 hPa 0,0 l/m 0 min 0 min 0 W/m 19,3 km/h (3 Bft) 95,74 %
28.10.2020 01:38 12,1 C 11,1 C 10,0 C 91 % 1004,4 hPa 0,0 l/m 0 min 0 min 0 W/m 22,5 km/h (4 Bft) 93,62 %
28.10.2020 01:40 12,1 C 11,1 C 10,0 C 91 % 1004,3 hPa 0,0 l/m 0 min 0 min 0 W/m 6,4 km/h (2 Bft) 95,12 %
28.10.2020 01:42 12,0 C 11,1 C 10,0 C 91 % 1004,3 hPa 0,0 l/m 0 min 0 min 0 W/m 19,3 km/h (3 Bft) 95,74 %
28.10.2020 01:44 12,0 C 11,1 C 10,0 C 92 % 1004,4 hPa 0,0 l/m 0 min 0 min 0 W/m 22,5 km/h (4 Bft) 93,62 %
28.10.2020 01:46 12,0 C 11,1 C 10,0 C 92 % 1004,4 hPa 0,0 l/m 0 min 0 min 0 W/m 19,3 km/h (3 Bft) 91,49 %
28.10.2020 01:48 12,0 C 11,1 C 10,0 C 92 % 1004,5 hPa 0,0 l/m 0 min 0 min 0 W/m 19,3 km/h (3 Bft) 95,74 %
28.10.2020 01:50 12,0 C 11,1 C 10,0 C 92 % 1004,6 hPa 0,0 l/m 0 min 0 min 0 W/m 19,3 km/h (3 Bft) 95,74 %
28.10.2020 01:52 12,0 C 11,1 C 10,0 C 92 % 1004,6 hPa 0,0 l/m 0 min 0 min 0 W/m 19,3 km/h (3 Bft) 93,88 %
28.10.2020 01:54 12,0 C 11,1 C 10,0 C 92 % 1004,6 hPa 0,0 l/m 0 min 0 min 0 W/m 22,5 km/h (4 Bft) 93,48 %
28.10.2020 01:56 12,0 C 11,7 C 10,0 C 92 % 1004,6 hPa 0,0 l/m 0 min 0 min 0 W/m 22,5 km/h (4 Bft) 93,62 %
28.10.2020 01:58 11,9 C 11,7 C 10,0 C 92 % 1004,6 hPa 0,0 l/m 0 min 0 min 0 W/m 29,0 km/h (5 Bft) 93,62 %
28.10.2020 02:00 11,9 C 11,7 C 10,6 C 92 % 1004,5 hPa 0,0 l/m 0 min 0 min 0 W/m 19,3 km/h (3 Bft) 91,67 %
28.10.2020 02:02 11,9 C 11,7 C 10,6 C 92 % 1004,6 hPa 0,0 l/m 0 min 0 min 0 W/m 25,7 km/h (4 Bft) 91,49 %
28.10.2020 02:04 11,9 C 11,7 C 10,6 C 92 % 1004,6 hPa 0,0 l/m 0 min 0 min 0 W/m 29,0 km/h (5 Bft) 91,49 %
28.10.2020 02:06 11,9 C 11,7 C 10,6 C 92 % 1004,6 hPa 0,0 l/m 0 min 0 min 0 W/m 12,9 km/h (3 Bft) 95,65 %
28.10.2020 02:08 11,9 C 11,7 C 10,6 C 92 % 1004,7 hPa 0,0 l/m 0 min 0 min 0 W/m 9,7 km/h (2 Bft) 95,83 %
28.10.2020 02:10 11,9 C 11,7 C 10,6 C 92 % 1004,7 hPa 0,0 l/m 0 min 0 min 0 W/m 16,1 km/h (3 Bft) 97,87 %
28.10.2020 02:12 11,9 C 11,7 C 10,6 C 91 % 1004,7 hPa 0,0 l/m 0 min 0 min 0 W/m 16,1 km/h (3 Bft) 97,87 %
28.10.2020 02:14 12,0 C 11,7 C 10,6 C 91 % 1004,7 hPa 0,0 l/m 0 min 0 min 0 W/m 22,5 km/h (4 Bft) 95,74 %
28.10.2020 02:16 12,0 C 11,7 C 10,6 C 91 % 1004,8 hPa 0,0 l/m 0 min 0 min 0 W/m 19,3 km/h (3 Bft) 97,87 %
28.10.2020 02:18 12,0 C 11,7 C 10,6 C 91 % 1004,8 hPa 0,0 l/m 0 min 0 min 0 W/m 6,4 km/h (2 Bft) 95,74 %
28.10.2020 02:20 12,0 C 11,7 C 10,6 C 91 % 1004,8 hPa 0,0 l/m 0 min 0 min 0 W/m 19,3 km/h (3 Bft) 95,74 %
28.10.2020 02:22 12,0 C 11,7 C 10,6 C 91 % 1004,8 hPa 0,0 l/m 0 min 0 min 0 W/m 6,4 km/h (2 Bft) 97,87 %
28.10.2020 02:24 12,0 C 11,7 C 10,6 C 91 % 1004,8 hPa 0,0 l/m 0 min 0 min 0 W/m 22,5 km/h (4 Bft) 97,87 %
28.10.2020 02:26 12,0 C 11,7 C 10,6 C 91 % 1004,9 hPa 0,0 l/m 0 min 0 min 0 W/m 12,9 km/h (3 Bft) 97,83 %
28.10.2020 02:28 12,0 C 11,1 C 10,0 C 91 % 1004,9 hPa 0,0 l/m 0 min 0 min 0 W/m 3,2 km/h (1 Bft) 93,62 %
28.10.2020 02:30 12,0 C 11,1 C 10,0 C 91 % 1005,0 hPa 0,0 l/m 0 min 0 min 0 W/m 6,4 km/h (2 Bft) 97,87 %
28.10.2020 02:32 12,0 C 11,1 C 10,0 C 91 % 1004,9 hPa 0,0 l/m 0 min 0 min 0 W/m 3,2 km/h (1 Bft) 95,24 %
28.10.2020 02:34 12,0 C 11,1 C 10,0 C 91 % 1004,9 hPa 0,0 l/m 0 min 0 min 0 W/m 19,3 km/h (3 Bft) 95,83 %
28.10.2020 02:36 12,0 C 11,1 C 10,0 C 91 % 1004,9 hPa 0,0 l/m 0 min 0 min 0 W/m 0,0 km/h (0 Bft) 97,92 %
28.10.2020 02:38 12,0 C 11,1 C 10,0 C 91 % 1004,8 hPa 0,0 l/m 0 min 0 min 0 W/m 6,4 km/h (2 Bft) 97,87 %
28.10.2020 02:40 12,0 C 11,7 C 10,0 C 91 % 1004,8 hPa 0,0 l/m 0 min 0 min 0 W/m 12,9 km/h (3 Bft) 93,62 %
28.10.2020 02:42 12,0 C 11,7 C 10,0 C 91 % 1004,8 hPa 0,0 l/m 0 min 0 min 0 W/m 19,3 km/h (3 Bft) 97,87 %
28.10.2020 02:44 12,0 C 11,7 C 10,6 C 91 % 1004,9 hPa 0,0 l/m 0 min 0 min 0 W/m 25,7 km/h (4 Bft) 97,92 %
28.10.2020 02:46 12,0 C 11,7 C 10,6 C 91 % 1004,9 hPa 0,0 l/m 0 min 0 min 0 W/m 12,9 km/h (3 Bft) 97,87 %
28.10.2020 02:48 12,0 C 11,1 C 10,0 C 91 % 1004,9 hPa 0,0 l/m 0 min 0 min 0 W/m 0,0 km/h (0 Bft) 100,00 %
28.10.2020 02:50 12,0 C 11,1 C 10,0 C 91 % 1005,0 hPa 0,0 l/m 0 min 0 min 0 W/m 12,9 km/h (3 Bft) 100,00 %
28.10.2020 02:52 12,0 C 11,1 C 10,0 C 91 % 1004,9 hPa 0,0 l/m 0 min 0 min 0 W/m 12,9 km/h (3 Bft) 100,00 %
28.10.2020 02:54 12,0 C 11,1 C 10,0 C 91 % 1005,0 hPa 0,0 l/m 0 min 0 min 0 W/m 16,1 km/h (3 Bft) 97,87 %
28.10.2020 02:56 12,0 C 11,1 C 10,0 C 91 % 1005,0 hPa 0,0 l/m 0 min 0 min 0 W/m 19,3 km/h (3 Bft) 97,87 %
28.10.2020 02:58 12,0 C 11,1 C 10,0 C 91 % 1005,0 hPa 0,0 l/m 0 min 0 min 0 W/m 16,1 km/h (3 Bft) 100,00 %
28.10.2020 03:00 12,0 C 11,1 C 10,0 C 91 % 1004,9 hPa 0,0 l/m 0 min 0 min 0 W/m 22,5 km/h (4 Bft) 100,00 %
28.10.2020 03:02 12,0 C 11,1 C 10,0 C 91 % 1004,9 hPa 0,0 l/m 0 min 0 min 0 W/m 6,4 km/h (2 Bft) 100,00 %
28.10.2020 03:04 12,0 C 11,1 C 10,0 C 91 % 1004,8 hPa 0,0 l/m 0 min 0 min 0 W/m 3,2 km/h (1 Bft) 100,00 %
28.10.2020 03:06 12,0 C 11,1 C 10,0 C 91 % 1004,9 hPa 0,0 l/m 0 min 0 min 0 W/m 0,0 km/h (0 Bft) 100,00 %
28.10.2020 03:08 12,0 C 11,1 C 10,0 C 91 % 1004,9 hPa 0,0 l/m 0 min 0 min 0 W/m 3,2 km/h (1 Bft) 100,00 %
28.10.2020 03:10 12,0 C 11,1 C 10,0 C 92 % 1004,9 hPa 0,0 l/m 0 min 0 min 0 W/m 3,2 km/h (1 Bft) 97,92 %
28.10.2020 03:12 12,0 C 11,1 C 10,0 C 92 % 1004,8 hPa 0,0 l/m 0 min 0 min 0 W/m 3,2 km/h (1 Bft) 100,00 %
28.10.2020 03:14 12,0 C 11,1 C 10,0 C 92 % 1004,8 hPa 0,0 l/m 0 min 0 min 0 W/m 6,4 km/h (2 Bft) 100,00 %
28.10.2020 03:16 12,0 C 11,1 C 10,0 C 92 % 1004,9 hPa 0,0 l/m 0 min 0 min 0 W/m 3,2 km/h (1 Bft) 97,87 %
28.10.2020 03:18 11,9 C 11,1 C 10,0 C 92 % 1004,9 hPa 0,0 l/m 0 min 0 min 0 W/m 6,4 km/h (2 Bft) 100,00 %
28.10.2020 03:20 11,9 C 11,1 C 10,0 C 92 % 1004,9 hPa 0,0 l/m 0 min 0 min 0 W/m 3,2 km/h (1 Bft) 100,00 %
28.10.2020 03:22 11,9 C 11,1 C 10,0 C 92 % 1004,8 hPa 0,0 l/m 0 min 0 min 0 W/m 0,0 km/h (0 Bft) 95,92 %
28.10.2020 03:24 11,9 C 11,1 C 10,0 C 92 % 1004,8 hPa 0,0 l/m 0 min 0 min 0 W/m 3,2 km/h (1 Bft) 100,00 %
28.10.2020 03:26 11,9 C 11,1 C 10,0 C 92 % 1004,9 hPa 0,0 l/m 0 min 0 min 0 W/m 6,4 km/h (2 Bft) 100,00 %
28.10.2020 03:28 11,9 C 11,1 C 10,0 C 92 % 1004,9 hPa 0,0 l/m 0 min 0 min 0 W/m 0,0 km/h (0 Bft) 100,00 %
28.10.2020 03:30 11,9 C 11,1 C 10,0 C 92 % 1004,9 hPa 0,0 l/m 0 min 0 min 0 W/m 0,0 km/h (0 Bft) 100,00 %
28.10.2020 03:32 11,9 C 11,1 C 10,0 C 92 % 1004,9 hPa 0,0 l/m 0 min 0 min 0 W/m 12,9 km/h (3 Bft) 100,00 %
28.10.2020 03:34 11,8 C 10,6 C 10,0 C 92 % 1004,8 hPa 0,0 l/m 0 min 0 min 0 W/m 6,4 km/h (2 Bft) 100,00 %
28.10.2020 03:36 11,8 C 10,6 C 10,0 C 92 % 1004,8 hPa 0,0 l/m 0 min 0 min 0 W/m 6,4 km/h (2 Bft) 100,00 %
28.10.2020 03:38 11,8 C 11,1 C 10,0 C 92 % 1004,9 hPa 0,0 l/m 0 min 0 min 0 W/m 12,9 km/h (3 Bft) 100,00 %
28.10.2020 03:40 11,8 C 11,1 C 10,0 C 92 % 1004,8 hPa 0,0 l/m 0 min 0 min 0 W/m 19,3 km/h (3 Bft) 100,00 %
28.10.2020 03:42 11,8 C 11,1 C 10,0 C 92 % 1004,9 hPa 0,0 l/m 0 min 0 min 0 W/m 6,4 km/h (2 Bft) 100,00 %
28.10.2020 03:44 11,8 C 11,1 C 10,0 C 92 % 1004,9 hPa 0,0 l/m 0 min 0 min 0 W/m 12,9 km/h (3 Bft) 100,00 %
28.10.2020 03:46 11,8 C 11,1 C 10,0 C 92 % 1005,0 hPa 0,0 l/m 0 min 0 min 0 W/m 6,4 km/h (2 Bft) 100,00 %
28.10.2020 03:48 11,8 C 11,1 C 10,0 C 92 % 1004,9 hPa 0,0 l/m 0 min 0 min 0 W/m 12,9 km/h (3 Bft) 97,87 %
28.10.2020 03:50 11,8 C 11,1 C 10,0 C 92 % 1004,9 hPa 0,0 l/m 0 min 0 min 0 W/m 12,9 km/h (3 Bft) 97,83 %
28.10.2020 03:52 11,8 C 11,1 C 10,0 C 93 % 1004,9 hPa 0,0 l/m 0 min 0 min 0 W/m 3,2 km/h (1 Bft) 100,00 %
28.10.2020 03:54 11,8 C 11,1 C 10,0 C 93 % 1004,9 hPa 0,0 l/m 0 min 0 min 0 W/m 3,2 km/h (1 Bft) 100,00 %
28.10.2020 03:56 11,8 C 11,1 C 10,0 C 93 % 1004,9 hPa 0,0 l/m 0 min 0 min 0 W/m 3,2 km/h (1 Bft) 97,87 %
28.10.2020 03:58 11,8 C 11,1 C 10,0 C 93 % 1005,0 hPa 0,0 l/m 0 min 0 min 0 W/m 16,1 km/h (3 Bft) 100,00 %
28.10.2020 04:00 11,8 C 11,1 C 10,0 C 93 % 1005,0 hPa 0,0 l/m 0 min 0 min 0 W/m 3,2 km/h (1 Bft) 100,00 %
28.10.2020 04:02 11,7 C 11,1 C 10,0 C 93 % 1004,9 hPa 0,0 l/m 0 min 0 min 0 W/m 6,4 km/h (2 Bft) 100,00 %
28.10.2020 04:04 11,7 C 10,6 C 10,0 C 93 % 1005,0 hPa 0,0 l/m 0 min 0 min 0 W/m 3,2 km/h (1 Bft) 97,62 %
28.10.2020 04:06 11,7 C 10,6 C 10,0 C 93 % 1004,9 hPa 0,0 l/m 0 min 0 min 0 W/m 9,7 km/h (2 Bft) 95,83 %
28.10.2020 04:08 11,7 C 10,6 C 10,0 C 93 % 1004,9 hPa 0,0 l/m 0 min 0 min 0 W/m 0,0 km/h (0 Bft) 95,83 %
28.10.2020 04:10 11,7 C 10,6 C 10,0 C 93 % 1004,9 hPa 0,0 l/m 0 min 0 min 0 W/m 0,0 km/h (0 Bft) 97,92 %
28.10.2020 04:12 11,7 C 10,6 C 10,0 C 93 % 1004,9 hPa 0,0 l/m 0 min 0 min 0 W/m 0,0 km/h (0 Bft) 97,87 %
28.10.2020 04:14 11,7 C 10,6 C 10,0 C 93 % 1004,9 hPa 0,0 l/m 0 min 0 min 0 W/m 3,2 km/h (1 Bft) 97,87 %
28.10.2020 04:16 11,6 C 10,6 C 10,0 C 93 % 1004,9 hPa 0,0 l/m 0 min 0 min 0 W/m 3,2 km/h (1 Bft) 97,87 %
28.10.2020 04:18 11,6 C 10,6 C 10,0 C 93 % 1004,9 hPa 0,0 l/m 0 min 0 min 0 W/m 0,0 km/h (0 Bft) 95,83 %
28.10.2020 04:20 11,6 C 10,6 C 9,5 C 93 % 1005,0 hPa 0,0 l/m 0 min 0 min 0 W/m 12,9 km/h (3 Bft) 95,74 %
28.10.2020 04:22 11,6 C 10,6 C 9,5 C 93 % 1005,0 hPa 0,0 l/m 0 min 0 min 0 W/m 12,9 km/h (3 Bft) 95,74 %
28.10.2020 04:24 11,6 C 10,6 C 9,5 C 93 % 1005,0 hPa 0,0 l/m 0 min 0 min 0 W/m 22,5 km/h (4 Bft) 97,83 %
28.10.2020 04:26 11,6 C 10,6 C 9,5 C 93 % 1005,0 hPa 0,0 l/m 0 min 0 min 0 W/m 6,4 km/h (2 Bft) 95,74 %
28.10.2020 04:28 11,6 C 10,6 C 9,5 C 93 % 1005,0 hPa 0,0 l/m 0 min 0 min 0 W/m 0,0 km/h (0 Bft) 97,87 %
28.10.2020 04:30 11,5 C 10,6 C 9,5 C 93 % 1005,0 hPa 0,0 l/m 0 min 0 min 0 W/m 3,2 km/h (1 Bft) 97,87 %
28.10.2020 04:32 11,5 C 10,6 C 9,5 C 93 % 1005,1 hPa 0,0 l/m 0 min 0 min 0 W/m 0,0 km/h (0 Bft) 95,74 %
28.10.2020 04:34 11,5 C 10,6 C 9,5 C 94 % 1005,1 hPa 0,0 l/m 0 min 0 min 0 W/m 6,4 km/h (2 Bft) 95,74 %
28.10.2020 04:36 11,5 C 10,6 C 9,5 C 94 % 1005,1 hPa 0,0 l/m 0 min 0 min 0 W/m 12,9 km/h (3 Bft) 95,65 %
28.10.2020 04:38 11,5 C 10,6 C 9,5 C 94 % 1005,0 hPa 0,0 l/m 0 min 0 min 0 W/m 0,0 km/h (0 Bft) 97,62 %
28.10.2020 04:40 11,5 C 10,6 C 9,5 C 94 % 1005,0 hPa 0,0 l/m 0 min 0 min 0 W/m 0,0 km/h (0 Bft) 95,74 %
28.10.2020 04:42 11,5 C 10,6 C 9,5 C 94 % 1005,1 hPa 0,0 l/m 0 min 0 min 0 W/m 12,9 km/h (3 Bft) 95,83 %
28.10.2020 04:44 11,4 C 10,0 C 9,5 C 94 % 1005,1 hPa 0,0 l/m 0 min 0 min 0 W/m 3,2 km/h (1 Bft) 95,83 %
28.10.2020 04:46 11,4 C 10,0 C 9,5 C 94 % 1005,1 hPa 0,0 l/m 0 min 0 min 0 W/m 12,9 km/h (3 Bft) 97,87 %
28.10.2020 04:48 11,4 C 10,0 C 9,5 C 94 % 1005,1 hPa 0,0 l/m 0 min 0 min 0 W/m 3,2 km/h (1 Bft) 95,74 %
28.10.2020 04:50 11,4 C 10,0 C 9,5 C 94 % 1005,1 hPa 0,0 l/m 0 min 0 min 0 W/m 3,2 km/h (1 Bft) 95,65 %
28.10.2020 04:52 11,4 C 10,0 C 9,5 C 94 % 1005,1 hPa 0,0 l/m 0 min 0 min 0 W/m 3,2 km/h (1 Bft) 95,74 %
28.10.2020 04:54 11,4 C 10,0 C 9,5 C 94 % 1005,1 hPa 0,0 l/m 0 min 0 min 0 W/m 0,0 km/h (0 Bft) 95,83 %
28.10.2020 04:56 11,3 C 10,0 C 9,5 C 94 % 1005,1 hPa 0,0 l/m 0 min 0 min 0 W/m 3,2 km/h (1 Bft) 93,62 %
28.10.2020 04:58 11,3 C 10,0 C 9,5 C 94 % 1005,1 hPa 0,0 l/m 0 min 0 min 0 W/m 12,9 km/h (3 Bft) 95,74 %
28.10.2020 05:00 11,3 C 10,0 C 9,5 C 94 % 1005,1 hPa 0,0 l/m 0 min 0 min 0 W/m 3,2 km/h (1 Bft) 95,65 %
28.10.2020 05:02 11,2 C 10,0 C 8,9 C 94 % 1005,2 hPa 0,0 l/m 0 min 0 min 0 W/m 3,2 km/h (1 Bft) 93,62 %
28.10.2020 05:04 11,2 C 10,0 C 9,5 C 94 % 1005,2 hPa 0,0 l/m 0 min 0 min 0 W/m 0,0 km/h (0 Bft) 92,86 %
28.10.2020 05:06 11,2 C 10,0 C 9,5 C 94 % 1005,3 hPa 0,0 l/m 0 min 0 min 0 W/m 0,0 km/h (0 Bft) 95,74 %
28.10.2020 05:08 11,1 C 10,0 C 9,5 C 94 % 1005,2 hPa 0,0 l/m 0 min 0 min 0 W/m 3,2 km/h (1 Bft) 93,62 %
28.10.2020 05:10 11,1 C 10,0 C 8,9 C 94 % 1005,2 hPa 0,0 l/m 0 min 0 min 0 W/m 0,0 km/h (0 Bft) 93,62 %
28.10.2020 05:12 11,1 C 10,0 C 8,9 C 94 % 1005,3 hPa 0,0 l/m 0 min 0 min 0 W/m 0,0 km/h (0 Bft) 95,74 %
28.10.2020 05:14 11,1 C 10,0 C 8,9 C 94 % 1005,4 hPa 0,0 l/m 0 min 0 min 0 W/m 3,2 km/h (1 Bft) 93,62 %
28.10.2020 05:16 11,1 C 10,0 C 8,9 C 94 % 1005,3 hPa 0,0 l/m 0 min 0 min 0 W/m 3,2 km/h (1 Bft) 95,74 %
28.10.2020 05:18 11,0 C 10,0 C 8,9 C 94 % 1005,3 hPa 0,0 l/m 0 min 0 min 0 W/m 12,9 km/h (3 Bft) 95,74 %
28.10.2020 05:20 11,0 C 10,0 C 8,9 C 94 % 1005,4 hPa 0,0 l/m 0 min 0 min 0 W/m 6,4 km/h (2 Bft) 95,74 %
28.10.2020 05:22 11,0 C 10,0 C 8,9 C 95 % 1005,4 hPa 0,0 l/m 0 min 0 min 0 W/m 12,9 km/h (3 Bft) 95,74 %
28.10.2020 05:24 11,0 C 10,0 C 8,9 C 95 % 1005,4 hPa 0,0 l/m 0 min 0 min 0 W/m 12,9 km/h (3 Bft) 93,75 %
28.10.2020 05:26 11,0 C 10,0 C 8,9 C 95 % 1005,5 hPa 0,0 l/m 0 min 0 min 0 W/m 12,9 km/h (3 Bft) 95,65 %
28.10.2020 05:28 11,0 C 10,0 C 8,9 C 95 % 1005,5 hPa 0,0 l/m 0 min 0 min 0 W/m 6,4 km/h (2 Bft) 95,74 %
28.10.2020 05:30 11,0 C 10,0 C 8,9 C 95 % 1005,5 hPa 0,0 l/m 0 min 0 min 0 W/m 9,7 km/h (2 Bft) 93,62 %
28.10.2020 05:32 11,0 C 10,0 C 9,5 C 95 % 1005,6 hPa 0,0 l/m 0 min 0 min 0 W/m 12,9 km/h (3 Bft) 95,74 %
28.10.2020 05:34 10,9 C 10,0 C 9,5 C 95 % 1005,6 hPa 0,0 l/m 0 min 0 min 0 W/m 6,4 km/h (2 Bft) 95,83 %
28.10.2020 05:36 10,9 C 10,0 C 9,5 C 95 % 1005,7 hPa 0,0 l/m 0 min 0 min 0 W/m 12,9 km/h (3 Bft) 97,87 %
28.10.2020 05:38 10,9 C 10,6 C 9,5 C 95 % 1005,7 hPa 0,0 l/m 0 min 0 min 0 W/m 12,9 km/h (3 Bft) 95,83 %
28.10.2020 05:40 11,0 C 10,6 C 9,5 C 95 % 1005,7 hPa 0,0 l/m 0 min 0 min 0 W/m 12,9 km/h (3 Bft) 98,28 %
28.10.2020 05:42 11,0 C 10,6 C 9,5 C 95 % 1005,8 hPa 0,0 l/m 0 min 0 min 0 W/m 6,4 km/h (2 Bft) 97,83 %
28.10.2020 05:44 11,0 C 10,0 C 9,5 C 95 % 1005,7 hPa 0,0 l/m 0 min 0 min 0 W/m 3,2 km/h (1 Bft) 97,87 %
28.10.2020 05:46 11,0 C 10,0 C 9,5 C 95 % 1005,8 hPa 0,0 l/m 0 min 0 min 0 W/m 3,2 km/h (1 Bft) 97,87 %
28.10.2020 05:48 11,0 C 10,0 C 9,5 C 95 % 1005,8 hPa 0,0 l/m 0 min 0 min 0 W/m 6,4 km/h (2 Bft) 97,87 %
28.10.2020 05:50 11,0 C 10,0 C 9,5 C 95 % 1005,8 hPa 0,0 l/m 0 min 0 min 0 W/m 6,4 km/h (2 Bft) 97,56 %
28.10.2020 05:52 11,0 C 10,0 C 9,5 C 95 % 1005,8 hPa 0,0 l/m 0 min 0 min 0 W/m 0,0 km/h (0 Bft) 97,87 %
28.10.2020 05:54 11,0 C 10,0 C 9,5 C 95 % 1005,8 hPa 0,0 l/m 0 min 0 min 0 W/m 3,2 km/h (1 Bft) 95,83 %
28.10.2020 05:56 10,9 C 10,0 C 9,5 C 95 % 1005,8 hPa 0,0 l/m 0 min 0 min 0 W/m 12,9 km/h (3 Bft) 97,92 %
28.10.2020 05:58 10,9 C 10,0 C 9,5 C 95 % 1005,8 hPa 0,0 l/m 0 min 0 min 0 W/m 19,3 km/h (3 Bft) 97,83 %
28.10.2020 06:00 10,9 C 10,0 C 9,5 C 96 % 1005,9 hPa 0,0 l/m 0 min 0 min 0 W/m 12,9 km/h (3 Bft) 95,83 %
28.10.2020 06:02 10,9 C 10,0 C 9,5 C 96 % 1005,9 hPa 0,0 l/m 0 min 0 min 0 W/m 22,5 km/h (4 Bft) 97,87 %
28.10.2020 06:04 10,9 C 10,0 C 9,5 C 96 % 1005,9 hPa 0,0 l/m 0 min 0 min 0 W/m 19,3 km/h (3 Bft) 100,00 %
28.10.2020 06:06 10,9 C 10,0 C 9,5 C 96 % 1005,9 hPa 0,0 l/m 0 min 0 min 0 W/m 12,9 km/h (3 Bft) 100,00 %
28.10.2020 06:08 10,9 C 10,0 C 9,5 C 96 % 1006,0 hPa 0,0 l/m 0 min 0 min 0 W/m 16,1 km/h (3 Bft) 97,87 %
28.10.2020 06:10 10,9 C 10,0 C 9,5 C 96 % 1006,0 hPa 0,0 l/m 0 min 0 min 0 W/m 3,2 km/h (1 Bft) 100,00 %
28.10.2020 06:12 10,9 C 10,0 C 9,5 C 96 % 1006,0 hPa 0,0 l/m 0 min 0 min 0 W/m 6,4 km/h (2 Bft) 97,87 %
28.10.2020 06:14 10,9 C 10,0 C 9,5 C 96 % 1006,1 hPa 0,0 l/m 0 min 0 min 0 W/m 6,4 km/h (2 Bft) 100,00 %
28.10.2020 06:16 10,9 C 10,0 C 9,5 C 96 % 1006,1 hPa 0,0 l/m 0 min 0 min 0 W/m 3,2 km/h (1 Bft) 100,00 %
28.10.2020 06:18 10,9 C 10,0 C 9,5 C 96 % 1006,2 hPa 0,0 l/m 0 min 0 min 0 W/m 3,2 km/h (1 Bft) 97,83 %
28.10.2020 06:20 10,9 C 10,0 C 9,5 C 96 % 1006,2 hPa 0,0 l/m 0 min 0 min 0 W/m 12,9 km/h (3 Bft) 97,62 %
28.10.2020 06:22 10,9 C 10,0 C 9,5 C 96 % 1006,2 hPa 0,0 l/m 0 min 0 min 0 W/m 0,0 km/h (0 Bft) 100,00 %
28.10.2020 06:24 10,8 C 10,0 C 9,5 C 96 % 1006,2 hPa 0,0 l/m 0 min 0 min 0 W/m 12,9 km/h (3 Bft) 100,00 %
28.10.2020 06:26 10,8 C 10,0 C 9,5 C 96 % 1006,2 hPa 0,0 l/m 0 min 0 min 0 W/m 6,4 km/h (2 Bft) 100,00 %
28.10.2020 06:28 10,8 C 10,0 C 9,5 C 96 % 1006,2 hPa 0,0 l/m 0 min 0 min 0 W/m 9,7 km/h (2 Bft) 95,74 %
28.10.2020 06:30 10,8 C 10,0 C 9,5 C 96 % 1006,2 hPa 0,0 l/m 0 min 0 min 0 W/m 6,4 km/h (2 Bft) 100,00 %
28.10.2020 06:32 10,8 C 10,0 C 9,5 C 96 % 1006,3 hPa 0,0 l/m 0 min 0 min 0 W/m 22,5 km/h (4 Bft) 100,00 %
28.10.2020 06:34 10,8 C 10,0 C 9,5 C 96 % 1006,3 hPa 0,0 l/m 0 min 0 min 0 W/m 3,2 km/h (1 Bft) 97,87 %
28.10.2020 06:36 10,8 C 10,0 C 9,5 C 96 % 1006,3 hPa 0,0 l/m 0 min 0 min 0 W/m 12,9 km/h (3 Bft) 97,87 %
28.10.2020 06:38 10,8 C 10,0 C 9,5 C 96 % 1006,2 hPa 0,0 l/m 0 min 0 min 0 W/m 3,2 km/h (1 Bft) 100,00 %
28.10.2020 06:40 10,8 C 10,0 C 9,5 C 96 % 1006,2 hPa 0,0 l/m 0 min 0 min 0 W/m 6,4 km/h (2 Bft) 100,00 %
28.10.2020 06:42 10,8 C 10,0 C 9,5 C 96 % 1006,2 hPa 0,0 l/m 0 min 0 min 0 W/m 3,2 km/h (1 Bft) 100,00 %
28.10.2020 06:44 10,7 C 10,0 C 8,9 C 96 % 1006,2 hPa 0,0 l/m 0 min 0 min 0 W/m 0,0 km/h (0 Bft) 100,00 %
28.10.2020 06:46 10,7 C 10,0 C 8,9 C 96 % 1006,2 hPa 0,0 l/m 0 min 0 min 0 W/m 12,9 km/h (3 Bft) 100,00 %
28.10.2020 06:48 10,7 C 10,0 C 8,9 C 96 % 1006,2 hPa 0,0 l/m 0 min 0 min 0 W/m 3,2 km/h (1 Bft) 100,00 %
28.10.2020 06:50 10,6 C 10,0 C 8,9 C 96 % 1006,2 hPa 0,0 l/m 0 min 0 min 0 W/m 3,2 km/h (1 Bft) 97,87 %
28.10.2020 06:52 10,6 C 9,4 C 8,9 C 96 % 1006,2 hPa 0,0 l/m 0 min 0 min 0 W/m 3,2 km/h (1 Bft) 97,62 %
28.10.2020 06:54 10,6 C 9,4 C 8,9 C 96 % 1006,3 hPa 0,0 l/m 0 min 0 min 0 W/m 0,0 km/h (0 Bft) 100,00 %
28.10.2020 06:56 10,6 C 10,0 C 8,9 C 96 % 1006,2 hPa 0,0 l/m 0 min 0 min 0 W/m 12,9 km/h (3 Bft) 95,74 %
28.10.2020 06:58 10,6 C 10,0 C 8,9 C 96 % 1006,3 hPa 0,0 l/m 0 min 0 min 0 W/m 3,2 km/h (1 Bft) 98,00 %
28.10.2020 07:00 10,6 C 10,0 C 8,9 C 96 % 1006,3 hPa 0,0 l/m 0 min 0 min 0 W/m 3,2 km/h (1 Bft) 97,92 %
28.10.2020 07:02 10,6 C 10,0 C 8,9 C 96 % 1006,4 hPa 0,0 l/m 0 min 0 min 0 W/m 0,0 km/h (0 Bft) 97,92 %
28.10.2020 07:04 10,5 C 10,0 C 8,9 C 96 % 1006,4 hPa 0,0 l/m 0 min 0 min 0 W/m 12,9 km/h (3 Bft) 97,83 %
28.10.2020 07:06 10,5 C 10,0 C 8,9 C 96 % 1006,5 hPa 0,0 l/m 0 min 0 min 0 W/m 6,4 km/h (2 Bft) 97,87 %
28.10.2020 07:08 10,5 C 10,0 C 8,9 C 96 % 1006,6 hPa 0,0 l/m 0 min 0 min 0 W/m 12,9 km/h (3 Bft) 95,12 %
28.10.2020 07:10 10,5 C 10,0 C 8,9 C 96 % 1006,6 hPa 0,0 l/m 0 min 0 min 0 W/m 9,7 km/h (2 Bft) 97,92 %
28.10.2020 07:12 10,5 C 10,0 C 9,5 C 96 % 1006,6 hPa 0,0 l/m 0 min 0 min 0 W/m 9,7 km/h (2 Bft) 95,92 %
28.10.2020 07:14 10,5 C 10,0 C 9,5 C 96 % 1006,7 hPa 0,0 l/m 0 min 0 min 0 W/m 12,9 km/h (3 Bft) 97,92 %
28.10.2020 07:16 10,5 C 10,0 C 9,5 C 96 % 1006,7 hPa 0,0 l/m 0 min 0 min 0 W/m 9,7 km/h (2 Bft) 95,83 %
28.10.2020 07:18 10,5 C 10,6 C 9,5 C 96 % 1006,8 hPa 0,0 l/m 0 min 0 min 0 W/m 16,1 km/h (3 Bft) 97,87 %
28.10.2020 07:20 10,6 C 10,6 C 9,5 C 96 % 1006,8 hPa 0,0 l/m 0 min 0 min 0 W/m 16,1 km/h (3 Bft) 97,87 %
28.10.2020 07:22 10,6 C 10,6 C 9,5 C 96 % 1006,9 hPa 0,0 l/m 0 min 0 min 0 W/m 9,7 km/h (2 Bft) 95,74 %
28.10.2020 07:24 10,6 C 10,6 C 9,5 C 96 % 1006,9 hPa 0,0 l/m 0 min 2 min 0 W/m 12,9 km/h (3 Bft) 95,74 %
28.10.2020 07:26 10,6 C 10,6 C 9,5 C 96 % 1007,0 hPa 0,0 l/m 0 min 0 min 3 W/m 3,2 km/h (1 Bft) 97,87 %
28.10.2020 07:28 10,6 C 10,6 C 9,5 C 96 % 1007,0 hPa 0,0 l/m 0 min 0 min 6 W/m 16,1 km/h (3 Bft) 97,83 %
28.10.2020 07:30 10,6 C 10,6 C 9,5 C 96 % 1007,0 hPa 0,0 l/m 0 min 0 min 7 W/m 9,7 km/h (2 Bft) 95,24 %
28.10.2020 07:32 10,6 C 10,6 C 9,5 C 96 % 1007,0 hPa 0,0 l/m 0 min 0 min 9 W/m 6,4 km/h (2 Bft) 91,67 %
28.10.2020 07:34 10,7 C 10,6 C 9,5 C 96 % 1007,1 hPa 0,0 l/m 0 min 0 min 10 W/m 19,3 km/h (3 Bft) 95,83 %
28.10.2020 07:36 10,7 C 10,6 C 9,5 C 96 % 1007,0 hPa 0,0 l/m 0 min 0 min 12 W/m 3,2 km/h (1 Bft) 95,74 %
28.10.2020 07:38 10,7 C 10,6 C 9,5 C 96 % 1007,1 hPa 0,0 l/m 0 min 0 min 13 W/m 3,2 km/h (1 Bft) 95,83 %
28.10.2020 07:40 10,7 C 10,6 C 9,5 C 96 % 1007,2 hPa 0,0 l/m 0 min 0 min 13 W/m 6,4 km/h (2 Bft) 95,74 %
28.10.2020 07:42 10,8 C 10,6 C 9,5 C 96 % 1007,2 hPa 0,0 l/m 0 min 0 min 13 W/m 6,4 km/h (2 Bft) 97,92 %
28.10.2020 07:44 10,8 C 10,6 C 9,5 C 96 % 1007,2 hPa 0,0 l/m 0 min 0 min 14 W/m 6,4 km/h (2 Bft) 97,67 %
28.10.2020 07:46 10,8 C 10,6 C 9,5 C 96 % 1007,1 hPa 0,0 l/m 0 min 0 min 14 W/m 6,4 km/h (2 Bft) 95,74 %
28.10.2020 07:48 10,8 C 10,6 C 9,5 C 96 % 1007,1 hPa 0,0 l/m 0 min 0 min 16 W/m 6,4 km/h (2 Bft) 97,56 %
28.10.2020 07:50 10,8 C 10,6 C 9,5 C 96 % 1007,0 hPa 0,0 l/m 0 min 0 min 18 W/m 19,3 km/h (3 Bft) 97,92 %
28.10.2020 07:52 10,8 C 10,6 C 9,5 C 96 % 1007,1 hPa 0,0 l/m 0 min 0 min 20 W/m 6,4 km/h (2 Bft) 97,96 %
28.10.2020 07:54 10,8 C 10,6 C 9,5 C 96 % 1007,1 hPa 0,0 l/m 0 min 0 min 23 W/m 6,4 km/h (2 Bft) 97,83 %
28.10.2020 07:56 10,8 C 10,6 C 9,5 C 96 % 1007,1 hPa 0,0 l/m 0 min 0 min 28 W/m 25,7 km/h (4 Bft) 93,75 %
28.10.2020 07:58 10,8 C 10,6 C 10,0 C 96 % 1007,2 hPa 0,0 l/m 0 min 0 min 33 W/m 12,9 km/h (3 Bft) 97,96 %
28.10.2020 08:00 10,8 C 10,6 C 10,0 C 96 % 1007,2 hPa 0,0 l/m 0 min 0 min 37 W/m 6,4 km/h (2 Bft) 97,87 %
28.10.2020 08:02 10,9 C 10,6 C 10,0 C 96 % 1007,3 hPa 0,0 l/m 0 min 0 min 42 W/m 16,1 km/h (3 Bft) 97,87 %
28.10.2020 08:04 10,9 C 11,1 C 10,0 C 96 % 1007,3 hPa 0,0 l/m 2 min 0 min 54 W/m 3,2 km/h (1 Bft) 97,67 %
28.10.2020 08:06 10,9 C 11,1 C 10,0 C 95 % 1007,4 hPa 0,0 l/m 2 min 0 min 78 W/m 0,0 km/h (0 Bft) 97,87 %
28.10.2020 08:08 10,9 C 11,1 C 10,0 C 95 % 1007,4 hPa 0,0 l/m 2 min 0 min 62 W/m 6,4 km/h (2 Bft) 97,92 %
28.10.2020 08:10 10,9 C 11,1 C 10,0 C 95 % 1007,4 hPa 0,0 l/m 2 min 0 min 64 W/m 3,2 km/h (1 Bft) 94,44 %
28.10.2020 08:12 11,0 C 11,1 C 10,0 C 95 % 1007,4 hPa 0,0 l/m 2 min 0 min 59 W/m 19,3 km/h (3 Bft) 97,96 %
28.10.2020 08:14 11,0 C 11,1 C 10,0 C 95 % 1007,4 hPa 0,0 l/m 0 min 0 min 52 W/m 6,4 km/h (2 Bft) 98,15 %
28.10.2020 08:16 11,0 C 11,1 C 10,0 C 95 % 1007,6 hPa 0,0 l/m 0 min 0 min 52 W/m 12,9 km/h (3 Bft) 97,56 %
28.10.2020 08:18 11,0 C 11,1 C 10,0 C 95 % 1007,6 hPa 0,0 l/m 0 min 0 min 51 W/m 6,4 km/h (2 Bft) 97,92 %
28.10.2020 08:20 11,0 C 11,1 C 10,0 C 95 % 1007,6 hPa 0,0 l/m 0 min 0 min 52 W/m 6,4 km/h (2 Bft) 97,87 %
28.10.2020 08:22 11,1 C 11,1 C 10,0 C 95 % 1007,6 hPa 0,0 l/m 0 min 0 min 54 W/m 3,2 km/h (1 Bft) 97,96 %
28.10.2020 08:24 11,1 C 11,1 C 10,0 C 95 % 1007,6 hPa 0,0 l/m 0 min 0 min 54 W/m 3,2 km/h (1 Bft) 97,87 %
28.10.2020 08:26 11,1 C 11,1 C 10,0 C 95 % 1007,6 hPa 0,0 l/m 0 min 0 min 58 W/m 0,0 km/h (0 Bft) 97,92 %
28.10.2020 08:28 11,1 C 11,1 C 10,0 C 95 % 1007,5 hPa 0,0 l/m 0 min 0 min 62 W/m 12,9 km/h (3 Bft) 97,87 %
28.10.2020 08:30 11,1 C 11,1 C 10,0 C 95 % 1007,6 hPa 0,0 l/m 0 min 0 min 61 W/m 6,4 km/h (2 Bft) 100,00 %
28.10.2020 08:32 11,1 C 11,1 C 10,0 C 94 % 1007,6 hPa 0,0 l/m 0 min 0 min 62 W/m 16,1 km/h (3 Bft) 100,00 %
28.10.2020 08:34 11,2 C 11,1 C 10,0 C 94 % 1007,7 hPa 0,0 l/m 0 min 0 min 66 W/m 9,7 km/h (2 Bft) 100,00 %
28.10.2020 08:36 11,2 C 11,7 C 10,0 C 94 % 1007,7 hPa 0,0 l/m 0 min 0 min 72 W/m 3,2 km/h (1 Bft) 100,00 %
28.10.2020 08:40 11,3 C 11,7 C 10,0 C 94 % 1007,6 hPa 0,0 l/m 0 min 0 min 78 W/m 6,4 km/h (2 Bft) 100,00 %
28.10.2020 08:42 11,3 C 11,7 C 10,6 C 94 % 1007,6 hPa 0,0 l/m 0 min 0 min 83 W/m 6,4 km/h (2 Bft) 100,00 %
28.10.2020 08:44 11,3 C 11,7 C 10,6 C 94 % 1007,7 hPa 0,0 l/m 0 min 0 min 86 W/m 6,4 km/h (2 Bft) 100,00 %
28.10.2020 08:46 11,4 C 11,7 C 10,6 C 94 % 1007,6 hPa 0,0 l/m 0 min 0 min 91 W/m 9,7 km/h (2 Bft) 97,92 %
28.10.2020 08:48 11,4 C 11,7 C 10,6 C 94 % 1007,6 hPa 0,0 l/m 2 min 0 min 97 W/m 16,1 km/h (3 Bft) 100,00 %
28.10.2020 08:50 11,4 C 11,7 C 10,6 C 94 % 1007,7 hPa 0,0 l/m 2 min 0 min 98 W/m 19,3 km/h (3 Bft) 95,83 %
28.10.2020 08:52 11,4 C 11,7 C 10,6 C 94 % 1007,7 hPa 0,0 l/m 0 min 0 min 97 W/m 16,1 km/h (3 Bft) 100,00 %
28.10.2020 08:54 11,5 C 11,7 C 10,6 C 93 % 1007,7 hPa 0,0 l/m 0 min 0 min 98 W/m 6,4 km/h (2 Bft) 97,87 %
28.10.2020 08:56 11,5 C 11,7 C 10,6 C 93 % 1007,8 hPa 0,0 l/m 0 min 0 min 98 W/m 16,1 km/h (3 Bft) 97,87 %
28.10.2020 08:58 11,5 C 11,7 C 10,6 C 93 % 1007,8 hPa 0,0 l/m 0 min 0 min 100 W/m 16,1 km/h (3 Bft) 100,00 %
28.10.2020 09:00 11,5 C 11,7 C 10,6 C 93 % 1007,8 hPa 0,0 l/m 0 min 0 min 102 W/m 16,1 km/h (3 Bft) 95,74 %
28.10.2020 09:02 11,6 C 11,7 C 10,6 C 93 % 1007,7 hPa 0,0 l/m 0 min 0 min 107 W/m 6,4 km/h (2 Bft) 95,83 %
28.10.2020 09:04 11,6 C 12,2 C 10,6 C 93 % 1007,8 hPa 0,0 l/m 0 min 0 min 111 W/m 12,9 km/h (3 Bft) 97,67 %
28.10.2020 09:06 11,6 C 12,2 C 10,6 C 93 % 1007,7 hPa 0,0 l/m 2 min 0 min 114 W/m 16,1 km/h (3 Bft) 97,92 %
28.10.2020 09:08 11,7 C 12,8 C 10,6 C 93 % 1007,8 hPa 0,0 l/m 2 min 0 min 170 W/m 9,7 km/h (2 Bft) 97,92 %
28.10.2020 09:10 11,7 C 12,8 C 10,6 C 93 % 1007,7 hPa 0,0 l/m 2 min 0 min 195 W/m 9,7 km/h (2 Bft) 97,92 %
28.10.2020 09:12 11,8 C 12,8 C 11,1 C 93 % 1007,7 hPa 0,0 l/m 2 min 0 min 174 W/m 16,1 km/h (3 Bft) 97,87 %
28.10.2020 09:14 11,8 C 13,3 C 11,1 C 93 % 1007,7 hPa 0,0 l/m 2 min 0 min 161 W/m 12,9 km/h (3 Bft) 97,87 %
28.10.2020 09:16 11,9 C 13,3 C 11,1 C 93 % 1007,8 hPa 0,0 l/m 2 min 0 min 209 W/m 19,3 km/h (3 Bft) 97,87 %
28.10.2020 09:18 11,9 C 13,3 C 11,1 C 92 % 1007,8 hPa 0,0 l/m 2 min 0 min 276 W/m 25,7 km/h (4 Bft) 97,87 %
28.10.2020 09:20 12,0 C 13,9 C 11,1 C 92 % 1007,8 hPa 0,0 l/m 2 min 0 min 306 W/m 3,2 km/h (1 Bft) 97,87 %
28.10.2020 09:22 12,0 C 14,4 C 11,7 C 92 % 1007,9 hPa 0,0 l/m 2 min 0 min 305 W/m 6,4 km/h (2 Bft) 95,74 %
28.10.2020 09:24 12,1 C 13,9 C 11,7 C 92 % 1007,9 hPa 0,0 l/m 2 min 0 min 281 W/m 16,1 km/h (3 Bft) 97,56 %
28.10.2020 09:26 12,2 C 13,9 C 11,7 C 92 % 1007,9 hPa 0,0 l/m 2 min 0 min 322 W/m 19,3 km/h (3 Bft) 97,92 %
28.10.2020 09:28 12,3 C 14,4 C 11,7 C 92 % 1008,0 hPa 0,0 l/m 2 min 0 min 277 W/m 25,7 km/h (4 Bft) 97,87 %
28.10.2020 09:30 12,4 C 14,4 C 11,7 C 91 % 1008,0 hPa 0,0 l/m 2 min 0 min 368 W/m 9,7 km/h (2 Bft) 97,92 %
28.10.2020 09:32 12,5 C 14,4 C 11,7 C 91 % 1008,1 hPa 0,0 l/m 2 min 0 min 204 W/m 16,1 km/h (3 Bft) 95,92 %
28.10.2020 09:34 12,6 C 13,9 C 11,7 C 91 % 1008,0 hPa 0,0 l/m 2 min 0 min 172 W/m 22,5 km/h (4 Bft) 93,75 %
28.10.2020 09:36 12,6 C 13,9 C 11,7 C 90 % 1008,0 hPa 0,0 l/m 2 min 0 min 178 W/m 19,3 km/h (3 Bft) 95,74 %
28.10.2020 09:38 12,7 C 14,4 C 11,7 C 90 % 1008,0 hPa 0,0 l/m 2 min 0 min 268 W/m 29,0 km/h (5 Bft) 93,62 %
28.10.2020 09:40 12,7 C 14,4 C 11,7 C 89 % 1008,0 hPa 0,0 l/m 2 min 0 min 263 W/m 25,7 km/h (4 Bft) 95,74 %
28.10.2020 09:42 12,8 C 13,9 C 11,7 C 89 % 1008,0 hPa 0,0 l/m 2 min 0 min 152 W/m 25,7 km/h (4 Bft) 97,87 %
28.10.2020 09:44 12,8 C 13,3 C 11,7 C 89 % 1008,0 hPa 0,0 l/m 2 min 0 min 172 W/m 32,2 km/h (5 Bft) 97,87 %
28.10.2020 09:46 12,9 C 13,3 C 11,7 C 88 % 1008,1 hPa 0,0 l/m 2 min 0 min 166 W/m 29,0 km/h (5 Bft) 95,65 %
28.10.2020 09:48 12,9 C 13,3 C 11,7 C 88 % 1008,2 hPa 0,0 l/m 2 min 0 min 198 W/m 35,4 km/h (5 Bft) 97,62 %
28.10.2020 09:50 12,9 C 12,8 C 11,7 C 88 % 1008,1 hPa 0,0 l/m 0 min 0 min 126 W/m 41,8 km/h (6 Bft) 96,36 %
28.10.2020 09:52 12,9 C 12,8 C 11,1 C 87 % 1008,1 hPa 0,0 l/m 0 min 0 min 98 W/m 35,4 km/h (5 Bft) 97,56 %
28.10.2020 09:54 12,9 C 12,8 C 11,1 C 87 % 1008,1 hPa 0,0 l/m 0 min 0 min 100 W/m 22,5 km/h (4 Bft) 95,83 %
28.10.2020 09:56 12,9 C 12,8 C 11,7 C 87 % 1008,2 hPa 0,0 l/m 0 min 0 min 112 W/m 19,3 km/h (3 Bft) 97,92 %
28.10.2020 09:58 12,9 C 12,8 C 11,7 C 87 % 1008,2 hPa 0,0 l/m 0 min 0 min 113 W/m 16,1 km/h (3 Bft) 98,00 %
28.10.2020 10:00 12,9 C 12,8 C 11,7 C 87 % 1008,3 hPa 0,0 l/m 0 min 0 min 96 W/m 29,0 km/h (5 Bft) 97,87 %
28.10.2020 10:02 12,9 C 13,3 C 11,7 C 87 % 1008,3 hPa 0,0 l/m 2 min 0 min 174 W/m 29,0 km/h (5 Bft) 95,83 %
28.10.2020 10:04 12,9 C 13,9 C 11,7 C 87 % 1008,3 hPa 0,0 l/m 2 min 0 min 187 W/m 29,0 km/h (5 Bft) 97,87 %
28.10.2020 10:06 12,9 C 13,3 C 11,7 C 87 % 1008,3 hPa 0,0 l/m 0 min 0 min 131 W/m 25,7 km/h (4 Bft) 97,56 %
28.10.2020 10:08 12,9 C 12,8 C 11,7 C 87 % 1008,3 hPa 0,0 l/m 0 min 0 min 87 W/m 32,2 km/h (5 Bft) 95,74 %
28.10.2020 10:10 12,9 C 12,8 C 11,7 C 86 % 1008,3 hPa 0,0 l/m 0 min 0 min 72 W/m 16,1 km/h (3 Bft) 100,00 %
28.10.2020 10:12 12,9 C 12,8 C 11,7 C 86 % 1008,3 hPa 0,0 l/m 0 min 0 min 91 W/m 29,0 km/h (5 Bft) 100,00 %
28.10.2020 10:14 12,9 C 12,8 C 11,7 C 86 % 1008,4 hPa 0,0 l/m 0 min 0 min 135 W/m 25,7 km/h (4 Bft) 95,74 %
28.10.2020 10:16 12,9 C 12,8 C 11,7 C 86 % 1008,3 hPa 0,0 l/m 0 min 0 min 127 W/m 25,7 km/h (4 Bft) 100,00 %
28.10.2020 10:18 12,9 C 12,8 C 11,7 C 86 % 1008,4 hPa 0,0 l/m 0 min 0 min 114 W/m 38,6 km/h (5 Bft) 97,56 %
28.10.2020 10:20 12,9 C 12,8 C 11,7 C 85 % 1008,3 hPa 0,0 l/m 0 min 0 min 144 W/m 22,5 km/h (4 Bft) 100,00 %
28.10.2020 10:22 12,9 C 13,9 C 11,7 C 85 % 1008,2 hPa 0,0 l/m 0 min 0 min 173 W/m 29,0 km/h (5 Bft) 100,00 %
28.10.2020 10:24 12,9 C 14,4 C 11,7 C 85 % 1008,2 hPa 0,0 l/m 2 min 0 min 307 W/m 22,5 km/h (4 Bft) 100,00 %
28.10.2020 10:26 13,0 C 14,4 C 12,2 C 86 % 1008,2 hPa 0,0 l/m 2 min 0 min 370 W/m 16,1 km/h (3 Bft) 100,00 %
28.10.2020 10:28 13,0 C 14,4 C 12,2 C 86 % 1008,3 hPa 0,0 l/m 2 min 0 min 318 W/m 35,4 km/h (5 Bft) 100,00 %
28.10.2020 10:30 13,1 C 13,9 C 12,2 C 85 % 1008,2 hPa 0,0 l/m 2 min 0 min 342 W/m 45,1 km/h (6 Bft) 97,87 %
28.10.2020 10:32 13,1 C 13,9 C 12,2 C 84 % 1008,4 hPa 0,0 l/m 2 min 0 min 262 W/m 25,7 km/h (4 Bft) 97,96 %
28.10.2020 10:34 13,1 C 13,9 C 12,2 C 84 % 1008,2 hPa 0,0 l/m 0 min 0 min 172 W/m 25,7 km/h (4 Bft) 100,00 %
28.10.2020 10:36 13,2 C 13,9 C 11,7 C 84 % 1008,2 hPa 0,0 l/m 0 min 0 min 170 W/m 38,6 km/h (5 Bft) 100,00 %
28.10.2020 10:38 13,2 C 13,9 C 11,7 C 83 % 1008,2 hPa 0,0 l/m 0 min 0 min 147 W/m 29,0 km/h (5 Bft) 95,65 %
28.10.2020 10:40 13,2 C 13,9 C 11,7 C 82 % 1008,3 hPa 0,0 l/m 2 min 0 min 336 W/m 25,7 km/h (4 Bft) 97,92 %
28.10.2020 10:42 13,3 C 14,4 C 11,7 C 82 % 1008,3 hPa 0,0 l/m 2 min 0 min 354 W/m 32,2 km/h (5 Bft) 97,92 %
28.10.2020 10:44 13,3 C 14,4 C 11,7 C 82 % 1008,3 hPa 0,0 l/m 2 min 0 min 251 W/m 38,6 km/h (5 Bft) 100,00 %
28.10.2020 10:46 13,3 C 15,6 C 12,2 C 82 % 1008,2 hPa 0,0 l/m 2 min 0 min 335 W/m 25,7 km/h (4 Bft) 100,00 %
28.10.2020 10:48 13,4 C 15,6 C 12,2 C 82 % 1008,2 hPa 0,0 l/m 2 min 0 min 388 W/m 35,4 km/h (5 Bft) 97,87 %
28.10.2020 10:50 13,4 C 15,6 C 12,2 C 81 % 1008,2 hPa 0,0 l/m 2 min 0 min 393 W/m 51,5 km/h (7 Bft) 97,87 %
28.10.2020 10:52 13,4 C 15,6 C 12,2 C 81 % 1008,2 hPa 0,0 l/m 2 min 0 min 338 W/m 29,0 km/h (5 Bft) 95,24 %
28.10.2020 10:54 13,5 C 15,6 C 12,2 C 80 % 1008,2 hPa 0,0 l/m 2 min 0 min 379 W/m 35,4 km/h (5 Bft) 97,56 %
28.10.2020 10:56 13,5 C 15,0 C 11,7 C 80 % 1008,3 hPa 0,0 l/m 2 min 0 min 253 W/m 35,4 km/h (5 Bft) 98,11 %
28.10.2020 10:58 13,5 C 14,4 C 11,7 C 80 % 1008,4 hPa 0,0 l/m 2 min 0 min 229 W/m 35,4 km/h (5 Bft) 97,73 %
28.10.2020 11:00 13,5 C 14,4 C 11,7 C 80 % 1008,3 hPa 0,0 l/m 0 min 0 min 117 W/m 19,3 km/h (3 Bft) 97,92 %
28.10.2020 11:02 13,6 C 15,0 C 11,7 C 80 % 1008,4 hPa 0,0 l/m 2 min 0 min 219 W/m 35,4 km/h (5 Bft) 97,83 %
28.10.2020 11:04 13,6 C 15,6 C 11,7 C 80 % 1008,3 hPa 0,0 l/m 2 min 0 min 292 W/m 29,0 km/h (5 Bft) 98,00 %
28.10.2020 11:06 13,6 C 16,1 C 11,7 C 81 % 1008,4 hPa 0,0 l/m 2 min 0 min 241 W/m 25,7 km/h (4 Bft) 97,92 %
28.10.2020 11:08 13,7 C 16,1 C 11,7 C 81 % 1008,4 hPa 0,0 l/m 0 min 0 min 188 W/m 29,0 km/h (5 Bft) 97,92 %
28.10.2020 11:10 13,7 C 16,7 C 12,2 C 80 % 1008,5 hPa 0,0 l/m 2 min 0 min 278 W/m 35,4 km/h (5 Bft) 97,92 %
28.10.2020 11:12 13,7 C 17,2 C 12,2 C 79 % 1008,5 hPa 0,0 l/m 2 min 0 min 464 W/m 32,2 km/h (5 Bft) 95,83 %
28.10.2020 11:14 13,8 C 16,7 C 12,2 C 79 % 1008,5 hPa 0,0 l/m 2 min 0 min 508 W/m 45,1 km/h (6 Bft) 97,87 %
28.10.2020 11:16 13,8 C 15,0 C 12,2 C 79 % 1008,6 hPa 0,0 l/m 2 min 0 min 208 W/m 32,2 km/h (5 Bft) 97,92 %
28.10.2020 11:18 13,8 C 16,1 C 12,2 C 79 % 1008,6 hPa 0,0 l/m 0 min 0 min 148 W/m 29,0 km/h (5 Bft) 95,74 %
28.10.2020 11:20 13,9 C 16,7 C 12,2 C 79 % 1008,6 hPa 0,0 l/m 2 min 0 min 326 W/m 22,5 km/h (4 Bft) 97,87 %
28.10.2020 11:22 13,9 C 17,2 C 12,2 C 79 % 1008,6 hPa 0,0 l/m 2 min 0 min 426 W/m 25,7 km/h (4 Bft) 97,87 %
28.10.2020 11:24 13,9 C 17,8 C 12,2 C 79 % 1008,6 hPa 0,0 l/m 2 min 0 min 450 W/m 22,5 km/h (4 Bft) 95,74 %
28.10.2020 11:26 14,0 C 18,3 C 12,2 C 79 % 1008,5 hPa 0,0 l/m 2 min 0 min 449 W/m 19,3 km/h (3 Bft) 97,87 %
28.10.2020 11:28 14,0 C 18,3 C 12,2 C 78 % 1008,7 hPa 0,0 l/m 2 min 0 min 438 W/m 29,0 km/h (5 Bft) 97,87 %
28.10.2020 11:30 14,1 C 17,2 C 12,2 C 78 % 1008,7 hPa 0,0 l/m 2 min 0 min 425 W/m 35,4 km/h (5 Bft) 97,56 %
28.10.2020 11:32 14,2 C 16,1 C 12,2 C 77 % 1008,7 hPa 0,0 l/m 2 min 0 min 337 W/m 35,4 km/h (5 Bft) 97,96 %
28.10.2020 11:34 14,2 C 16,1 C 12,2 C 77 % 1008,7 hPa 0,0 l/m 0 min 0 min 160 W/m 22,5 km/h (4 Bft) 97,92 %
28.10.2020 11:36 14,2 C 16,7 C 12,2 C 77 % 1008,8 hPa 0,0 l/m 2 min 0 min 462 W/m 35,4 km/h (5 Bft) 95,74 %
28.10.2020 11:38 14,2 C 16,1 C 12,2 C 76 % 1008,8 hPa 0,0 l/m 2 min 0 min 425 W/m 38,6 km/h (5 Bft) 94,44 %
28.10.2020 11:40 14,2 C 16,7 C 12,2 C 76 % 1008,8 hPa 0,0 l/m 2 min 0 min 448 W/m 25,7 km/h (4 Bft) 92,86 %
28.10.2020 11:42 14,2 C 16,7 C 12,2 C 76 % 1009,0 hPa 0,0 l/m 2 min 0 min 475 W/m 54,7 km/h (7 Bft) 91,30 %
28.10.2020 11:44 14,2 C 17,2 C 12,2 C 76 % 1008,9 hPa 0,0 l/m 2 min 0 min 486 W/m 45,1 km/h (6 Bft) 95,24 %
28.10.2020 11:46 14,2 C 17,8 C 12,2 C 76 % 1009,1 hPa 0,0 l/m 2 min 0 min 513 W/m 25,7 km/h (4 Bft) 89,58 %
28.10.2020 11:48 14,2 C 16,7 C 12,2 C 76 % 1008,9 hPa 0,0 l/m 2 min 0 min 450 W/m 35,4 km/h (5 Bft) 95,74 %
28.10.2020 11:50 14,3 C 15,6 C 12,2 C 76 % 1008,9 hPa 0,0 l/m 2 min 0 min 230 W/m 48,3 km/h (6 Bft) 93,75 %
28.10.2020 11:52 14,2 C 14,4 C 12,2 C 75 % 1009,0 hPa 0,0 l/m 0 min 0 min 175 W/m 35,4 km/h (5 Bft) 91,84 %
28.10.2020 11:54 14,2 C 13,9 C 12,2 C 75 % 1008,8 hPa 0,0 l/m 0 min 0 min 139 W/m 25,7 km/h (4 Bft) 90,70 %
28.10.2020 11:56 14,2 C 13,3 C 11,7 C 75 % 1008,9 hPa 0,0 l/m 0 min 0 min 94 W/m 32,2 km/h (5 Bft) 92,86 %
28.10.2020 11:58 14,2 C 13,3 C 11,7 C 75 % 1008,8 hPa 0,0 l/m 0 min 0 min 77 W/m 25,7 km/h (4 Bft) 96,00 %
28.10.2020 12:00 14,1 C 12,8 C 11,7 C 76 % 1008,9 hPa 0,0 l/m 0 min 0 min 60 W/m 32,2 km/h (5 Bft) 93,75 %
28.10.2020 12:02 14,0 C 12,8 C 11,7 C 76 % 1008,9 hPa 0,0 l/m 0 min 0 min 47 W/m 22,5 km/h (4 Bft) 91,67 %
28.10.2020 12:04 13,9 C 12,8 C 11,7 C 76 % 1008,9 hPa 0,0 l/m 0 min 0 min 39 W/m 19,3 km/h (3 Bft) 93,62 %
28.10.2020 12:08 13,8 C 12,8 C 11,1 C 77 % 1009,0 hPa 0,0 l/m 0 min 0 min 34 W/m 19,3 km/h (3 Bft) 93,55 %
28.10.2020 12:10 13,7 C 12,8 C 11,1 C 77 % 1009,0 hPa 0,0 l/m 0 min 2 min 60 W/m 32,2 km/h (5 Bft) 90,48 %
28.10.2020 12:12 13,6 C 12,8 C 11,7 C 77 % 1009,0 hPa 0,0 l/m 0 min 0 min 76 W/m 22,5 km/h (4 Bft) 93,62 %
28.10.2020 12:14 13,6 C 12,8 C 11,7 C 78 % 1009,0 hPa 0,0 l/m 0 min 0 min 109 W/m 25,7 km/h (4 Bft) 93,75 %
28.10.2020 12:16 13,5 C 12,8 C 11,7 C 78 % 1009,0 hPa 0,0 l/m 0 min 0 min 97 W/m 22,5 km/h (4 Bft) 95,83 %
28.10.2020 12:18 13,5 C 12,8 C 11,7 C 78 % 1009,2 hPa 0,0 l/m 0 min 0 min 103 W/m 29,0 km/h (5 Bft) 95,83 %
28.10.2020 12:20 13,4 C 12,8 C 11,7 C 78 % 1009,1 hPa 0,0 l/m 0 min 0 min 88 W/m 35,4 km/h (5 Bft) 100,00 %
28.10.2020 12:22 13,4 C 12,8 C 11,1 C 78 % 1009,1 hPa 0,0 l/m 0 min 0 min 74 W/m 32,2 km/h (5 Bft) 95,74 %
28.10.2020 12:24 13,4 C 12,8 C 11,1 C 78 % 1009,2 hPa 0,0 l/m 0 min 0 min 148 W/m 19,3 km/h (3 Bft) 97,87 %
28.10.2020 12:26 13,4 C 14,4 C 11,7 C 78 % 1009,1 hPa 0,0 l/m 2 min 0 min 249 W/m 29,0 km/h (5 Bft) 97,87 %
28.10.2020 12:28 13,4 C 16,1 C 13,4 C 78 % 1009,2 hPa 0,0 l/m 2 min 0 min 448 W/m 32,2 km/h (5 Bft) 97,87 %
28.10.2020 12:30 13,5 C 15,6 C 12,8 C 79 % 1009,0 hPa 0,0 l/m 2 min 0 min 366 W/m 16,1 km/h (3 Bft) 100,00 %
28.10.2020 12:32 13,5 C 14,4 C 12,2 C 78 % 1009,0 hPa 0,0 l/m 0 min 0 min 182 W/m 25,7 km/h (4 Bft) 97,92 %
28.10.2020 12:34 13,6 C 16,7 C 13,9 C 78 % 1009,0 hPa 0,0 l/m 0 min 0 min 199 W/m 16,1 km/h (3 Bft) 100,00 %
28.10.2020 12:36 13,8 C 16,7 C 13,9 C 78 % 1009,0 hPa 0,0 l/m 0 min 0 min 200 W/m 16,1 km/h (3 Bft) 100,00 %
28.10.2020 12:38 13,8 C 15,6 C 12,8 C 78 % 1009,0 hPa 0,0 l/m 0 min 0 min 139 W/m 22,5 km/h (4 Bft) 100,00 %
28.10.2020 12:40 13,9 C 15,6 C 12,8 C 77 % 1009,1 hPa 0,0 l/m 2 min 0 min 232 W/m 29,0 km/h (5 Bft) 100,00 %
28.10.2020 12:42 13,9 C 17,8 C 12,8 C 76 % 1009,0 hPa 0,0 l/m 2 min 0 min 505 W/m 29,0 km/h (5 Bft) 100,00 %
28.10.2020 12:44 14,1 C 18,9 C 13,4 C 76 % 1008,9 hPa 0,0 l/m 2 min 0 min 436 W/m 25,7 km/h (4 Bft) 95,74 %
28.10.2020 12:46 14,2 C 18,9 C 13,4 C 76 % 1009,0 hPa 0,0 l/m 2 min 0 min 436 W/m 45,1 km/h (6 Bft) 100,00 %
28.10.2020 12:48 14,2 C 16,7 C 13,4 C 75 % 1009,0 hPa 0,0 l/m 2 min 0 min 444 W/m 45,1 km/h (6 Bft) 97,87 %
28.10.2020 12:50 14,4 C 15,0 C 12,8 C 73 % 1009,0 hPa 0,0 l/m 0 min 0 min 172 W/m 41,8 km/h (6 Bft) 100,00 %
28.10.2020 12:52 14,4 C 14,4 C 12,2 C 73 % 1009,1 hPa 0,0 l/m 0 min 0 min 134 W/m 45,1 km/h (6 Bft) 97,87 %
28.10.2020 12:54 14,3 C 15,6 C 12,2 C 73 % 1009,0 hPa 0,0 l/m 0 min 0 min 142 W/m 22,5 km/h (4 Bft) 100,00 %
28.10.2020 12:56 14,3 C 17,8 C 12,2 C 73 % 1008,9 hPa 0,0 l/m 2 min 0 min 545 W/m 22,5 km/h (4 Bft) 100,00 %
28.10.2020 12:58 14,4 C 17,2 C 12,8 C 74 % 1009,1 hPa 0,0 l/m 2 min 0 min 547 W/m 22,5 km/h (4 Bft) 97,96 %
28.10.2020 13:00 14,5 C 15,6 C 12,8 C 73 % 1009,0 hPa 0,0 l/m 0 min 0 min 167 W/m 19,3 km/h (3 Bft) 100,00 %
28.10.2020 13:02 14,5 C 15,6 C 12,2 C 74 % 1009,0 hPa 0,0 l/m 0 min 0 min 168 W/m 22,5 km/h (4 Bft) 97,92 %
28.10.2020 13:04 14,4 C 15,6 C 12,2 C 73 % 1008,9 hPa 0,0 l/m 2 min 0 min 209 W/m 38,6 km/h (5 Bft) 100,00 %
28.10.2020 13:06 14,4 C 16,7 C 12,2 C 73 % 1009,0 hPa 0,0 l/m 2 min 0 min 209 W/m 35,4 km/h (5 Bft) 100,00 %
28.10.2020 13:08 14,5 C 16,7 C 12,2 C 73 % 1008,9 hPa 0,0 l/m 2 min 0 min 256 W/m 22,5 km/h (4 Bft) 100,00 %
28.10.2020 13:10 14,5 C 16,1 C 12,2 C 73 % 1008,9 hPa 0,0 l/m 2 min 0 min 289 W/m 29,0 km/h (5 Bft) 100,00 %
28.10.2020 13:12 14,5 C 16,1 C 12,2 C 73 % 1008,9 hPa 0,0 l/m 0 min 0 min 166 W/m 45,1 km/h (6 Bft) 95,83 %
28.10.2020 13:14 14,5 C 16,7 C 12,8 C 73 % 1009,1 hPa 0,0 l/m 0 min 0 min 174 W/m 35,4 km/h (5 Bft) 100,00 %
28.10.2020 13:16 14,6 C 17,2 C 12,8 C 73 % 1009,0 hPa 0,0 l/m 2 min 0 min 417 W/m 35,4 km/h (5 Bft) 100,00 %
28.10.2020 13:18 14,6 C 18,3 C 12,8 C 73 % 1008,9 hPa 0,0 l/m 2 min 0 min 443 W/m 29,0 km/h (5 Bft) 100,00 %
28.10.2020 13:20 14,8 C 18,3 C 12,8 C 72 % 1008,9 hPa 0,0 l/m 2 min 0 min 505 W/m 41,8 km/h (6 Bft) 100,00 %
28.10.2020 13:22 14,8 C 18,3 C 12,8 C 72 % 1009,0 hPa 0,0 l/m 2 min 0 min 552 W/m 41,8 km/h (6 Bft) 100,00 %
28.10.2020 13:24 14,9 C 17,2 C 12,8 C 72 % 1008,9 hPa 0,0 l/m 2 min 0 min 484 W/m 57,9 km/h (7 Bft) 100,00 %
28.10.2020 13:26 14,9 C 17,8 C 12,8 C 72 % 1008,8 hPa 0,0 l/m 2 min 0 min 464 W/m 35,4 km/h (5 Bft) 100,00 %
28.10.2020 13:28 15,0 C 18,3 C 12,8 C 72 % 1008,8 hPa 0,0 l/m 2 min 0 min 495 W/m 32,2 km/h (5 Bft) 100,00 %
28.10.2020 13:30 15,0 C 17,8 C 12,8 C 71 % 1008,9 hPa 0,0 l/m 2 min 0 min 480 W/m 45,1 km/h (6 Bft) 100,00 %
28.10.2020 13:32 15,0 C 16,7 C 12,8 C 70 % 1009,1 hPa 0,0 l/m 2 min 0 min 316 W/m 35,4 km/h (5 Bft) 97,96 %
28.10.2020 13:34 15,0 C 17,8 C 12,8 C 71 % 1008,8 hPa 0,0 l/m 2 min 0 min 336 W/m 16,1 km/h (3 Bft) 100,00 %
28.10.2020 13:36 15,1 C 18,3 C 12,8 C 72 % 1008,8 hPa 0,0 l/m 2 min 0 min 439 W/m 16,1 km/h (3 Bft) 100,00 %
28.10.2020 13:38 15,1 C 17,2 C 12,8 C 72 % 1008,8 hPa 0,0 l/m 2 min 0 min 447 W/m 45,1 km/h (6 Bft) 97,92 %
28.10.2020 13:40 15,1 C 16,7 C 12,8 C 71 % 1008,8 hPa 0,0 l/m 2 min 0 min 463 W/m 25,7 km/h (4 Bft) 100,00 %
28.10.2020 13:42 15,1 C 17,2 C 12,8 C 71 % 1008,8 hPa 0,0 l/m 2 min 0 min 501 W/m 25,7 km/h (4 Bft) 100,00 %
28.10.2020 13:44 15,1 C 17,2 C 12,8 C 71 % 1008,8 hPa 0,0 l/m 2 min 0 min 348 W/m 25,7 km/h (4 Bft) 100,00 %
28.10.2020 13:46 15,1 C 17,2 C 12,8 C 71 % 1008,7 hPa 0,0 l/m 2 min 0 min 346 W/m 35,4 km/h (5 Bft) 100,00 %
28.10.2020 13:48 15,1 C 17,2 C 12,8 C 70 % 1008,9 hPa 0,0 l/m 2 min 0 min 378 W/m 51,5 km/h (7 Bft) 100,00 %
28.10.2020 13:50 15,1 C 15,6 C 12,8 C 69 % 1008,8 hPa 0,0 l/m 2 min 0 min 301 W/m 35,4 km/h (5 Bft) 100,00 %
28.10.2020 13:52 15,0 C 14,4 C 12,2 C 69 % 1008,8 hPa 0,0 l/m 0 min 0 min 117 W/m 29,0 km/h (5 Bft) 100,00 %
28.10.2020 13:54 14,9 C 14,4 C 12,2 C 70 % 1008,8 hPa 0,0 l/m 0 min 0 min 136 W/m 22,5 km/h (4 Bft) 100,00 %
28.10.2020 13:56 14,9 C 14,4 C 12,2 C 70 % 1008,8 hPa 0,0 l/m 0 min 0 min 135 W/m 19,3 km/h (3 Bft) 100,00 %
28.10.2020 13:58 14,8 C 15,0 C 12,2 C 70 % 1008,8 hPa 0,0 l/m 2 min 0 min 186 W/m 29,0 km/h (5 Bft) 100,00 %
28.10.2020 14:00 14,8 C 15,0 C 12,2 C 70 % 1008,9 hPa 0,0 l/m 0 min 0 min 181 W/m 32,2 km/h (5 Bft) 91,49 %
28.10.2020 14:02 14,7 C 14,4 C 12,2 C 70 % 1008,8 hPa 0,0 l/m 0 min 0 min 126 W/m 35,4 km/h (5 Bft) 95,74 %
28.10.2020 14:04 14,6 C 14,4 C 12,2 C 70 % 1008,7 hPa 0,0 l/m 0 min 0 min 104 W/m 25,7 km/h (4 Bft) 97,73 %
28.10.2020 14:06 14,6 C 15,0 C 12,2 C 71 % 1008,7 hPa 0,0 l/m 0 min 0 min 111 W/m 16,1 km/h (3 Bft) 97,92 %
28.10.2020 14:08 14,6 C 16,1 C 12,2 C 71 % 1008,7 hPa 0,0 l/m 0 min 0 min 116 W/m 25,7 km/h (4 Bft) 95,65 %
28.10.2020 14:10 14,6 C 16,7 C 12,2 C 71 % 1008,7 hPa 0,0 l/m 2 min 0 min 236 W/m 29,0 km/h (5 Bft) 95,83 %
28.10.2020 14:12 14,6 C 16,7 C 12,2 C 71 % 1008,6 hPa 0,0 l/m 2 min 0 min 398 W/m 25,7 km/h (4 Bft) 93,62 %
28.10.2020 14:14 14,6 C 16,7 C 12,2 C 71 % 1008,5 hPa 0,0 l/m 2 min 0 min 187 W/m 32,2 km/h (5 Bft) 95,83 %
28.10.2020 14:16 14,6 C 15,6 C 12,2 C 71 % 1008,6 hPa 0,0 l/m 2 min 0 min 264 W/m 19,3 km/h (3 Bft) 95,74 %
28.10.2020 14:18 14,6 C 15,6 C 12,2 C 71 % 1008,5 hPa 0,0 l/m 0 min 0 min 135 W/m 12,9 km/h (3 Bft) 95,83 %
28.10.2020 14:20 14,7 C 16,1 C 12,8 C 72 % 1008,6 hPa 0,0 l/m 2 min 0 min 317 W/m 38,6 km/h (5 Bft) 95,74 %
28.10.2020 14:22 14,7 C 15,0 C 12,2 C 70 % 1008,6 hPa 0,0 l/m 2 min 0 min 236 W/m 35,4 km/h (5 Bft) 93,75 %
28.10.2020 14:24 14,7 C 14,4 C 12,2 C 70 % 1008,5 hPa 0,0 l/m 0 min 0 min 133 W/m 38,6 km/h (5 Bft) 95,74 %
28.10.2020 14:26 14,7 C 14,4 C 12,2 C 70 % 1008,5 hPa 0,0 l/m 0 min 0 min 112 W/m 29,0 km/h (5 Bft) 95,74 %
28.10.2020 14:28 14,6 C 14,4 C 12,2 C 70 % 1008,5 hPa 0,0 l/m 0 min 0 min 114 W/m 16,1 km/h (3 Bft) 93,62 %
28.10.2020 14:30 14,6 C 14,4 C 12,2 C 70 % 1008,5 hPa 0,0 l/m 0 min 0 min 134 W/m 32,2 km/h (5 Bft) 95,74 %
28.10.2020 14:32 14,6 C 14,4 C 12,2 C 71 % 1008,6 hPa 0,0 l/m 0 min 0 min 134 W/m 16,1 km/h (3 Bft) 97,92 %
28.10.2020 14:34 14,6 C 13,9 C 12,2 C 71 % 1008,5 hPa 0,0 l/m 0 min 0 min 95 W/m 32,2 km/h (5 Bft) 95,74 %
28.10.2020 14:36 14,5 C 13,9 C 12,2 C 70 % 1009,0 hPa 0,0 l/m 0 min 0 min 88 W/m 38,6 km/h (5 Bft) 93,48 %
28.10.2020 14:38 14,5 C 13,9 C 12,2 C 70 % 1008,7 hPa 0,0 l/m 0 min 0 min 73 W/m 41,8 km/h (6 Bft) 96,00 %
28.10.2020 14:40 14,4 C 13,9 C 12,2 C 71 % 1008,6 hPa 0,0 l/m 0 min 0 min 58 W/m 22,5 km/h (4 Bft) 93,62 %
28.10.2020 14:42 14,4 C 13,9 C 12,2 C 71 % 1008,5 hPa 0,0 l/m 0 min 0 min 48 W/m 29,0 km/h (5 Bft) 95,74 %
28.10.2020 14:44 14,4 C 13,9 C 12,2 C 71 % 1008,6 hPa 0,0 l/m 0 min 0 min 47 W/m 25,7 km/h (4 Bft) 97,87 %
28.10.2020 14:46 14,3 C 13,3 C 11,7 C 71 % 1008,6 hPa 0,0 l/m 0 min 0 min 49 W/m 22,5 km/h (4 Bft) 95,65 %
28.10.2020 14:48 14,3 C 13,3 C 11,7 C 72 % 1008,5 hPa 0,0 l/m 0 min 0 min 53 W/m 22,5 km/h (4 Bft) 97,87 %
28.10.2020 14:50 14,2 C 13,9 C 12,2 C 72 % 1008,6 hPa 0,0 l/m 0 min 0 min 81 W/m 12,9 km/h (3 Bft) 95,74 %
28.10.2020 14:52 14,2 C 13,9 C 12,2 C 72 % 1008,6 hPa 0,0 l/m 0 min 0 min 103 W/m 35,4 km/h (5 Bft) 95,74 %
28.10.2020 14:54 14,2 C 13,9 C 12,2 C 70 % 1008,8 hPa 0,0 l/m 0 min 0 min 92 W/m 48,3 km/h (6 Bft) 100,00 %
28.10.2020 14:56 14,2 C 15,0 C 12,2 C 70 % 1008,6 hPa 0,0 l/m 0 min 0 min 125 W/m 29,0 km/h (5 Bft) 97,87 %
28.10.2020 14:58 14,2 C 16,1 C 12,2 C 71 % 1008,6 hPa 0,0 l/m 2 min 0 min 321 W/m 35,4 km/h (5 Bft) 97,62 %
28.10.2020 15:00 14,3 C 16,1 C 12,2 C 71 % 1008,5 hPa 0,0 l/m 2 min 0 min 386 W/m 32,2 km/h (5 Bft) 97,87 %
28.10.2020 15:02 14,3 C 15,6 C 12,2 C 70 % 1008,5 hPa 0,0 l/m 2 min 0 min 172 W/m 41,8 km/h (6 Bft) 96,00 %
28.10.2020 15:04 14,4 C 16,7 C 12,2 C 70 % 1008,6 hPa 0,0 l/m 2 min 0 min 210 W/m 25,7 km/h (4 Bft) 97,92 %
28.10.2020 15:06 14,5 C 15,6 C 12,2 C 70 % 1008,6 hPa 0,0 l/m 2 min 0 min 245 W/m 29,0 km/h (5 Bft) 95,74 %
28.10.2020 15:08 14,5 C 15,0 C 12,2 C 70 % 1008,6 hPa 0,0 l/m 2 min 0 min 151 W/m 45,1 km/h (6 Bft) 97,87 %
28.10.2020 15:10 14,5 C 14,4 C 12,2 C 70 % 1008,4 hPa 0,0 l/m 0 min 0 min 93 W/m 41,8 km/h (6 Bft) 95,65 %
28.10.2020 15:12 14,5 C 13,9 C 12,2 C 70 % 1008,5 hPa 0,0 l/m 0 min 0 min 90 W/m 38,6 km/h (5 Bft) 97,87 %
28.10.2020 15:14 14,4 C 15,0 C 12,2 C 70 % 1008,5 hPa 0,0 l/m 0 min 0 min 128 W/m 25,7 km/h (4 Bft) 97,87 %
28.10.2020 15:16 14,5 C 15,0 C 12,2 C 70 % 1008,5 hPa 0,0 l/m 2 min 0 min 273 W/m 22,5 km/h (4 Bft) 97,62 %
28.10.2020 15:18 14,5 C 14,4 C 12,2 C 70 % 1008,5 hPa 0,0 l/m 2 min 0 min 134 W/m 16,1 km/h (3 Bft) 97,87 %
28.10.2020 15:20 14,5 C 14,4 C 12,2 C 70 % 1008,4 hPa 0,0 l/m 0 min 0 min 92 W/m 35,4 km/h (5 Bft) 97,92 %
28.10.2020 15:22 14,5 C 13,9 C 12,2 C 70 % 1008,6 hPa 0,0 l/m 0 min 0 min 77 W/m 38,6 km/h (5 Bft) 97,87 %
28.10.2020 15:24 14,4 C 13,9 C 12,2 C 69 % 1008,6 hPa 0,0 l/m 0 min 0 min 100 W/m 38,6 km/h (5 Bft) 97,92 %
28.10.2020 15:26 14,4 C 13,9 C 12,2 C 69 % 1008,5 hPa 0,0 l/m 2 min 0 min 149 W/m 32,2 km/h (5 Bft) 97,92 %
28.10.2020 15:28 14,4 C 14,4 C 12,2 C 70 % 1008,6 hPa 0,0 l/m 2 min 0 min 119 W/m 32,2 km/h (5 Bft) 97,83 %
28.10.2020 15:30 14,4 C 14,4 C 12,2 C 70 % 1008,6 hPa 0,0 l/m 2 min 0 min 132 W/m 38,6 km/h (5 Bft) 95,83 %
28.10.2020 15:32 14,3 C 13,9 C 12,2 C 70 % 1008,5 hPa 0,0 l/m 0 min 0 min 98 W/m 22,5 km/h (4 Bft) 97,87 %
28.10.2020 15:34 14,3 C 13,9 C 12,2 C 71 % 1008,6 hPa 0,0 l/m 0 min 0 min 75 W/m 25,7 km/h (4 Bft) 97,92 %
28.10.2020 15:36 14,3 C 13,9 C 12,2 C 71 % 1008,6 hPa 0,0 l/m 0 min 0 min 71 W/m 16,1 km/h (3 Bft) 95,74 %
28.10.2020 15:38 14,2 C 13,3 C 11,7 C 71 % 1008,5 hPa 0,0 l/m 0 min 0 min 50 W/m 32,2 km/h (5 Bft) 97,87 %
28.10.2020 15:40 14,2 C 13,3 C 11,7 C 71 % 1008,6 hPa 0,0 l/m 0 min 0 min 26 W/m 25,7 km/h (4 Bft) 97,22 %
28.10.2020 15:42 14,2 C 13,3 C 11,7 C 70 % 1008,5 hPa 0,0 l/m 0 min 0 min 26 W/m 35,4 km/h (5 Bft) 97,92 %
28.10.2020 15:44 14,2 C 13,3 C 11,7 C 71 % 1008,5 hPa 0,0 l/m 0 min 0 min 33 W/m 35,4 km/h (5 Bft) 97,87 %
28.10.2020 15:46 14,2 C 13,3 C 11,7 C 71 % 1008,5 hPa 0,0 l/m 0 min 0 min 35 W/m 25,7 km/h (4 Bft) 97,92 %
28.10.2020 15:48 14,2 C 13,3 C 11,7 C 71 % 1008,5 hPa 0,0 l/m 0 min 0 min 34 W/m 29,0 km/h (5 Bft) 97,87 %
28.10.2020 15:50 14,2 C 13,3 C 11,7 C 71 % 1008,5 hPa 0,0 l/m 0 min 0 min 39 W/m 45,1 km/h (6 Bft) 95,74 %
28.10.2020 15:52 14,1 C 13,3 C 11,7 C 71 % 1008,5 hPa 0,0 l/m 0 min 0 min 40 W/m 29,0 km/h (5 Bft) 97,87 %
28.10.2020 15:54 14,1 C 13,3 C 11,7 C 71 % 1008,5 hPa 0,0 l/m 0 min 0 min 30 W/m 22,5 km/h (4 Bft) 100,00 %
28.10.2020 15:56 14,0 C 13,3 C 11,7 C 71 % 1008,5 hPa 0,0 l/m 0 min 0 min 27 W/m 25,7 km/h (4 Bft) 100,00 %
28.10.2020 15:58 14,0 C 13,3 C 11,7 C 71 % 1008,5 hPa 0,0 l/m 0 min 0 min 44 W/m 19,3 km/h (3 Bft) 100,00 %
28.10.2020 16:00 14,0 C 13,9 C 11,7 C 72 % 1008,4 hPa 0,0 l/m 0 min 0 min 74 W/m 25,7 km/h (4 Bft) 100,00 %
28.10.2020 16:02 14,0 C 13,9 C 11,7 C 72 % 1008,5 hPa 0,0 l/m 2 min 0 min 120 W/m 22,5 km/h (4 Bft) 100,00 %
28.10.2020 16:04 14,0 C 13,9 C 11,7 C 72 % 1008,4 hPa 0,0 l/m 2 min 0 min 82 W/m 29,0 km/h (5 Bft) 100,00 %
28.10.2020 16:06 14,0 C 13,3 C 11,7 C 72 % 1008,4 hPa 0,0 l/m 0 min 0 min 40 W/m 22,5 km/h (4 Bft) 100,00 %
28.10.2020 16:08 14,0 C 13,3 C 11,7 C 72 % 1008,3 hPa 0,0 l/m 0 min 0 min 33 W/m 16,1 km/h (3 Bft) 100,00 %
28.10.2020 16:10 14,0 C 13,3 C 11,7 C 72 % 1008,3 hPa 0,0 l/m 0 min 0 min 34 W/m 22,5 km/h (4 Bft) 100,00 %
28.10.2020 16:12 14,0 C 13,3 C 11,7 C 72 % 1008,4 hPa 0,0 l/m 0 min 0 min 38 W/m 29,0 km/h (5 Bft) 100,00 %
28.10.2020 16:14 14,0 C 13,3 C 11,7 C 72 % 1008,4 hPa 0,0 l/m 0 min 0 min 44 W/m 29,0 km/h (5 Bft) 100,00 %
28.10.2020 16:16 14,0 C 13,3 C 11,7 C 72 % 1008,3 hPa 0,0 l/m 0 min 0 min 47 W/m 22,5 km/h (4 Bft) 100,00 %
28.10.2020 16:18 13,9 C 13,3 C 11,7 C 72 % 1008,4 hPa 0,0 l/m 0 min 0 min 47 W/m 19,3 km/h (3 Bft) 100,00 %
28.10.2020 16:20 13,9 C 13,3 C 11,7 C 72 % 1008,3 hPa 0,0 l/m 0 min 0 min 43 W/m 22,5 km/h (4 Bft) 100,00 %
28.10.2020 16:22 13,9 C 13,3 C 11,7 C 72 % 1008,3 hPa 0,0 l/m 0 min 0 min 32 W/m 35,4 km/h (5 Bft) 100,00 %
28.10.2020 16:24 13,9 C 13,3 C 11,7 C 72 % 1008,4 hPa 0,0 l/m 0 min 0 min 24 W/m 35,4 km/h (5 Bft) 100,00 %
28.10.2020 16:26 13,9 C 13,3 C 11,7 C 72 % 1008,4 hPa 0,0 l/m 0 min 0 min 20 W/m 29,0 km/h (5 Bft) 95,74 %
28.10.2020 16:28 13,9 C 13,3 C 11,7 C 73 % 1008,3 hPa 0,0 l/m 0 min 0 min 21 W/m 29,0 km/h (5 Bft) 100,00 %
28.10.2020 16:30 13,8 C 13,3 C 11,7 C 73 % 1008,3 hPa 0,0 l/m 0 min 0 min 21 W/m 25,7 km/h (4 Bft) 100,00 %
28.10.2020 16:32 13,8 C 12,8 C 11,7 C 73 % 1008,3 hPa 0,0 l/m 0 min 0 min 17 W/m 25,7 km/h (4 Bft) 97,87 %
28.10.2020 16:34 13,8 C 12,8 C 11,7 C 73 % 1008,3 hPa 0,0 l/m 0 min 0 min 13 W/m 22,5 km/h (4 Bft) 100,00 %
28.10.2020 16:36 13,8 C 12,8 C 11,1 C 73 % 1008,3 hPa 0,0 l/m 0 min 0 min 12 W/m 22,5 km/h (4 Bft) 100,00 %
28.10.2020 16:38 13,8 C 12,8 C 11,7 C 73 % 1008,4 hPa 0,0 l/m 0 min 0 min 11 W/m 38,6 km/h (5 Bft) 100,00 %
28.10.2020 16:40 13,8 C 12,8 C 11,7 C 73 % 1008,3 hPa 0,0 l/m 0 min 0 min 12 W/m 41,8 km/h (6 Bft) 100,00 %
28.10.2020 16:42 13,8 C 12,8 C 11,7 C 73 % 1008,3 hPa 0,0 l/m 0 min 0 min 14 W/m 25,7 km/h (4 Bft) 97,83 %
28.10.2020 16:44 13,8 C 12,8 C 11,7 C 73 % 1008,3 hPa 0,0 l/m 0 min 0 min 18 W/m 25,7 km/h (4 Bft) 97,62 %
28.10.2020 16:46 13,8 C 12,8 C 11,1 C 73 % 1008,3 hPa 0,0 l/m 0 min 0 min 17 W/m 38,6 km/h (5 Bft) 97,87 %
28.10.2020 16:48 13,7 C 12,8 C 11,1 C 73 % 1008,2 hPa 0,0 l/m 0 min 0 min 16 W/m 38,6 km/h (5 Bft) 95,83 %
28.10.2020 16:50 13,7 C 12,8 C 11,1 C 73 % 1008,3 hPa 0,0 l/m 0 min 0 min 16 W/m 22,5 km/h (4 Bft) 97,83 %
28.10.2020 16:52 13,6 C 12,8 C 11,1 C 73 % 1008,2 hPa 0,0 l/m 0 min 0 min 15 W/m 25,7 km/h (4 Bft) 97,92 %
28.10.2020 16:54 13,6 C 12,8 C 11,1 C 74 % 1008,3 hPa 0,0 l/m 0 min 0 min 13 W/m 19,3 km/h (3 Bft) 97,92 %
28.10.2020 16:56 13,6 C 12,8 C 11,1 C 74 % 1008,3 hPa 0,0 l/m 0 min 0 min 11 W/m 38,6 km/h (5 Bft) 97,87 %
28.10.2020 16:58 13,6 C 12,8 C 11,1 C 74 % 1008,2 hPa 0,0 l/m 0 min 0 min 9 W/m 25,7 km/h (4 Bft) 95,74 %
28.10.2020 17:00 13,6 C 12,8 C 11,1 C 74 % 1008,2 hPa 0,0 l/m 0 min 0 min 8 W/m 22,5 km/h (4 Bft) 97,87 %
28.10.2020 17:02 13,5 C 12,8 C 11,1 C 74 % 1008,2 hPa 0,0 l/m 0 min 0 min 7 W/m 12,9 km/h (3 Bft) 97,87 %
28.10.2020 17:04 13,5 C 12,8 C 11,1 C 74 % 1008,2 hPa 0,0 l/m 0 min 0 min 7 W/m 16,1 km/h (3 Bft) 96,00 %
28.10.2020 17:06 13,5 C 12,2 C 11,1 C 74 % 1008,2 hPa 0,0 l/m 0 min 0 min 7 W/m 25,7 km/h (4 Bft) 95,65 %
28.10.2020 17:08 13,5 C 12,2 C 11,1 C 74 % 1008,2 hPa 0,0 l/m 0 min 0 min 5 W/m 29,0 km/h (5 Bft) 97,22 %
28.10.2020 17:10 13,4 C 12,2 C 10,6 C 75 % 1008,1 hPa 0,0 l/m 0 min 0 min 5 W/m 25,7 km/h (4 Bft) 97,92 %
28.10.2020 17:12 13,4 C 12,2 C 10,6 C 75 % 1008,1 hPa 0,0 l/m 0 min 0 min 1 W/m 25,7 km/h (4 Bft) 95,74 %
28.10.2020 17:14 13,4 C 12,2 C 10,6 C 75 % 1008,1 hPa 0,0 l/m 0 min 0 min 0 W/m 19,3 km/h (3 Bft) 95,74 %
28.10.2020 17:16 13,4 C 12,2 C 10,6 C 75 % 1008,1 hPa 0,0 l/m 0 min 0 min 0 W/m 22,5 km/h (4 Bft) 93,62 %
28.10.2020 17:18 13,3 C 12,2 C 10,6 C 75 % 1008,0 hPa 0,0 l/m 0 min 0 min 0 W/m 22,5 km/h (4 Bft) 95,83 %
28.10.2020 17:20 13,3 C 12,2 C 10,6 C 75 % 1008,0 hPa 0,0 l/m 0 min 0 min 0 W/m 22,5 km/h (4 Bft) 93,48 %
28.10.2020 17:22 13,3 C 12,2 C 10,6 C 75 % 1008,0 hPa 0,0 l/m 0 min 0 min 0 W/m 19,3 km/h (3 Bft) 93,62 %
28.10.2020 17:24 13,2 C 12,2 C 10,6 C 76 % 1008,0 hPa 0,0 l/m 0 min 0 min 0 W/m 25,7 km/h (4 Bft) 93,62 %
28.10.2020 17:26 13,2 C 12,2 C 10,6 C 76 % 1008,0 hPa 0,0 l/m 0 min 0 min 0 W/m 19,3 km/h (3 Bft) 91,49 %
28.10.2020 17:28 13,1 C 12,2 C 10,6 C 76 % 1008,0 hPa 0,0 l/m 0 min 0 min 0 W/m 19,3 km/h (3 Bft) 95,74 %
28.10.2020 17:30 13,1 C 12,2 C 10,6 C 76 % 1008,0 hPa 0,0 l/m 0 min 0 min 0 W/m 19,3 km/h (3 Bft) 97,87 %
28.10.2020 17:32 13,1 C 12,2 C 10,6 C 76 % 1008,1 hPa 0,0 l/m 0 min 0 min 0 W/m 19,3 km/h (3 Bft) 97,87 %
28.10.2020 17:34 13,0 C 12,2 C 10,6 C 76 % 1008,1 hPa 0,0 l/m 0 min 0 min 0 W/m 22,5 km/h (4 Bft) 97,87 %
28.10.2020 17:36 13,0 C 12,2 C 10,6 C 77 % 1008,1 hPa 0,0 l/m 0 min 0 min 0 W/m 22,5 km/h (4 Bft) 95,74 %
28.10.2020 17:38 13,0 C 12,2 C 10,6 C 77 % 1008,1 hPa 0,0 l/m 0 min 0 min 0 W/m 22,5 km/h (4 Bft) 93,62 %
28.10.2020 17:40 13,0 C 12,2 C 10,6 C 77 % 1008,1 hPa 0,0 l/m 0 min 0 min 0 W/m 16,1 km/h (3 Bft) 97,87 %
28.10.2020 17:42 13,0 C 11,7 C 10,6 C 77 % 1008,1 hPa 0,0 l/m 0 min 0 min 0 W/m 19,3 km/h (3 Bft) 97,83 %
28.10.2020 17:44 12,9 C 11,7 C 10,6 C 77 % 1008,1 hPa 0,0 l/m 0 min 0 min 0 W/m 19,3 km/h (3 Bft) 97,87 %
28.10.2020 17:46 12,9 C 11,7 C 10,6 C 77 % 1008,2 hPa 0,0 l/m 0 min 0 min 0 W/m 22,5 km/h (4 Bft) 93,62 %
28.10.2020 17:48 12,9 C 11,7 C 10,6 C 77 % 1008,2 hPa 0,0 l/m 0 min 0 min 0 W/m 12,9 km/h (3 Bft) 95,24 %
28.10.2020 17:50 12,9 C 11,7 C 10,6 C 77 % 1008,2 hPa 0,0 l/m 0 min 0 min 0 W/m 19,3 km/h (3 Bft) 97,87 %
28.10.2020 17:52 12,8 C 11,7 C 10,6 C 77 % 1008,2 hPa 0,0 l/m 0 min 0 min 0 W/m 19,3 km/h (3 Bft) 95,74 %
28.10.2020 17:54 12,8 C 11,7 C 10,6 C 78 % 1008,2 hPa 0,0 l/m 0 min 0 min 0 W/m 19,3 km/h (3 Bft) 95,83 %
28.10.2020 17:56 12,8 C 11,7 C 10,6 C 78 % 1008,2 hPa 0,0 l/m 0 min 0 min 0 W/m 16,1 km/h (3 Bft) 93,62 %
28.10.2020 17:58 12,8 C 11,7 C 10,6 C 78 % 1008,2 hPa 0,0 l/m 0 min 0 min 0 W/m 16,1 km/h (3 Bft) 95,74 %
28.10.2020 18:00 12,8 C 11,7 C 10,6 C 78 % 1008,2 hPa 0,0 l/m 0 min 0 min 0 W/m 22,5 km/h (4 Bft) 95,74 %
28.10.2020 18:02 12,8 C 12,2 C 10,6 C 78 % 1008,2 hPa 0,0 l/m 0 min 0 min 0 W/m 25,7 km/h (4 Bft) 95,74 %
28.10.2020 18:04 12,8 C 12,2 C 10,6 C 78 % 1008,2 hPa 0,0 l/m 0 min 0 min 0 W/m 19,3 km/h (3 Bft) 95,83 %
28.10.2020 18:08 12,7 C 12,2 C 10,6 C 78 % 1008,2 hPa 0,0 l/m 0 min 0 min 0 W/m 16,1 km/h (3 Bft) 94,62 %
28.10.2020 18:10 12,7 C 12,2 C 10,6 C 78 % 1008,2 hPa 0,0 l/m 0 min 0 min 0 W/m 12,9 km/h (3 Bft) 95,74 %
28.10.2020 18:12 12,7 C 12,2 C 10,6 C 78 % 1008,2 hPa 0,0 l/m 0 min 0 min 0 W/m 19,3 km/h (3 Bft) 95,74 %
28.10.2020 18:14 12,7 C 12,2 C 10,6 C 78 % 1008,2 hPa 0,0 l/m 0 min 0 min 0 W/m 12,9 km/h (3 Bft) 95,74 %
28.10.2020 18:16 12,7 C 12,2 C 10,6 C 78 % 1008,2 hPa 0,0 l/m 0 min 0 min 0 W/m 22,5 km/h (4 Bft) 93,62 %
28.10.2020 18:18 12,7 C 12,2 C 10,6 C 78 % 1008,2 hPa 0,0 l/m 0 min 0 min 0 W/m 16,1 km/h (3 Bft) 95,65 %
28.10.2020 18:20 12,7 C 12,2 C 10,6 C 78 % 1008,1 hPa 0,0 l/m 0 min 0 min 0 W/m 25,7 km/h (4 Bft) 97,87 %
28.10.2020 18:22 12,7 C 12,2 C 10,6 C 78 % 1008,1 hPa 0,0 l/m 0 min 0 min 0 W/m 12,9 km/h (3 Bft) 93,62 %
28.10.2020 18:24 12,7 C 12,2 C 10,6 C 79 % 1008,1 hPa 0,0 l/m 0 min 0 min 0 W/m 19,3 km/h (3 Bft) 97,87 %
28.10.2020 18:26 12,7 C 12,2 C 10,6 C 79 % 1008,1 hPa 0,0 l/m 0 min 0 min 0 W/m 16,1 km/h (3 Bft) 97,87 %
28.10.2020 18:28 12,7 C 12,2 C 10,6 C 79 % 1008,2 hPa 0,0 l/m 0 min 0 min 0 W/m 25,7 km/h (4 Bft) 95,74 %
28.10.2020 18:30 12,7 C 12,2 C 10,6 C 79 % 1008,2 hPa 0,0 l/m 0 min 0 min 0 W/m 12,9 km/h (3 Bft) 97,83 %
28.10.2020 18:32 12,7 C 12,2 C 10,6 C 79 % 1008,2 hPa 0,0 l/m 0 min 0 min 0 W/m 35,4 km/h (5 Bft) 95,83 %
28.10.2020 18:34 12,8 C 12,2 C 10,6 C 79 % 1008,2 hPa 0,0 l/m 0 min 0 min 0 W/m 19,3 km/h (3 Bft) 95,74 %
28.10.2020 18:36 12,8 C 12,2 C 10,6 C 79 % 1008,2 hPa 0,0 l/m 0 min 0 min 0 W/m 22,5 km/h (4 Bft) 97,87 %
28.10.2020 18:38 12,8 C 11,7 C 10,6 C 79 % 1008,1 hPa 0,0 l/m 0 min 2 min 0 W/m 41,8 km/h (6 Bft) 98,00 %
28.10.2020 18:40 12,8 C 11,7 C 10,0 C 79 % 1008,2 hPa 0,0 l/m 0 min 2 min 0 W/m 22,5 km/h (4 Bft) 97,83 %
28.10.2020 18:42 12,8 C 11,7 C 10,0 C 79 % 1008,1 hPa 0,0 l/m 0 min 0 min 0 W/m 22,5 km/h (4 Bft) 100,00 %
28.10.2020 18:44 12,8 C 11,7 C 10,0 C 80 % 1008,2 hPa 0,0 l/m 0 min 0 min 0 W/m 41,8 km/h (6 Bft) 100,00 %
28.10.2020 18:46 12,8 C 11,7 C 10,0 C 80 % 1008,2 hPa 0,0 l/m 0 min 2 min 0 W/m 19,3 km/h (3 Bft) 100,00 %
28.10.2020 18:48 12,8 C 11,1 C 10,0 C 80 % 1008,2 hPa 0,0 l/m 0 min 2 min 0 W/m 38,6 km/h (5 Bft) 100,00 %
28.10.2020 18:50 12,8 C 10,6 C 9,5 C 80 % 1008,1 hPa 0,0 l/m 0 min 2 min 0 W/m 29,0 km/h (5 Bft) 100,00 %
28.10.2020 18:52 12,8 C 10,0 C 8,9 C 81 % 1008,0 hPa 0,0 l/m 0 min 2 min 0 W/m 25,7 km/h (4 Bft) 100,00 %
28.10.2020 18:54 12,7 C 10,0 C 8,9 C 81 % 1008,0 hPa 0,0 l/m 0 min 2 min 0 W/m 32,2 km/h (5 Bft) 100,00 %
28.10.2020 18:56 12,7 C 10,0 C 8,4 C 82 % 1008,0 hPa 0,2 l/m 0 min 2 min 0 W/m 22,5 km/h (4 Bft) 97,92 %
28.10.2020 18:58 12,6 C 10,0 C 8,4 C 82 % 1007,9 hPa 0,0 l/m 0 min 2 min 0 W/m 16,1 km/h (3 Bft) 100,00 %
28.10.2020 19:00 12,6 C 10,0 C 8,4 C 83 % 1007,9 hPa 0,0 l/m 0 min 2 min 0 W/m 29,0 km/h (5 Bft) 100,00 %
28.10.2020 19:02 12,6 C 10,0 C 8,4 C 83 % 1007,9 hPa 0,0 l/m 0 min 2 min 0 W/m 19,3 km/h (3 Bft) 100,00 %
28.10.2020 19:04 12,5 C 10,0 C 8,9 C 83 % 1007,8 hPa 0,0 l/m 0 min 0 min 0 W/m 16,1 km/h (3 Bft) 100,00 %
28.10.2020 19:06 12,5 C 10,0 C 8,9 C 83 % 1007,7 hPa 0,0 l/m 0 min 0 min 0 W/m 25,7 km/h (4 Bft) 100,00 %
28.10.2020 19:08 12,5 C 10,6 C 8,9 C 83 % 1007,8 hPa 0,0 l/m 0 min 0 min 0 W/m 12,9 km/h (3 Bft) 97,83 %
28.10.2020 19:10 12,4 C 10,6 C 8,9 C 83 % 1007,8 hPa 0,0 l/m 0 min 2 min 0 W/m 38,6 km/h (5 Bft) 100,00 %
28.10.2020 19:12 12,4 C 10,6 C 8,9 C 83 % 1007,8 hPa 0,0 l/m 0 min 2 min 0 W/m 25,7 km/h (4 Bft) 100,00 %
28.10.2020 19:14 12,4 C 10,6 C 8,9 C 84 % 1007,8 hPa 0,0 l/m 0 min 2 min 0 W/m 19,3 km/h (3 Bft) 100,00 %
28.10.2020 19:16 12,3 C 10,6 C 8,9 C 84 % 1007,8 hPa 0,0 l/m 0 min 2 min 0 W/m 16,1 km/h (3 Bft) 100,00 %
28.10.2020 19:18 12,3 C 10,0 C 8,9 C 84 % 1007,8 hPa 0,0 l/m 0 min 2 min 0 W/m 22,5 km/h (4 Bft) 97,87 %
28.10.2020 19:20 12,3 C 10,0 C 8,9 C 84 % 1007,7 hPa 0,0 l/m 0 min 2 min 0 W/m 19,3 km/h (3 Bft) 100,00 %
28.10.2020 19:22 12,3 C 10,0 C 8,9 C 84 % 1007,7 hPa 0,0 l/m 0 min 2 min 0 W/m 29,0 km/h (5 Bft) 100,00 %
28.10.2020 19:24 12,3 C 10,0 C 8,9 C 84 % 1007,7 hPa 0,0 l/m 0 min 2 min 0 W/m 22,5 km/h (4 Bft) 97,87 %
28.10.2020 19:26 12,2 C 10,0 C 8,9 C 84 % 1007,7 hPa 0,0 l/m 0 min 2 min 0 W/m 25,7 km/h (4 Bft) 100,00 %
28.10.2020 19:28 12,2 C 10,6 C 8,9 C 84 % 1007,6 hPa 0,0 l/m 0 min 2 min 0 W/m 32,2 km/h (5 Bft) 100,00 %
28.10.2020 19:30 12,2 C 10,6 C 8,9 C 85 % 1007,7 hPa 0,0 l/m 0 min 2 min 0 W/m 29,0 km/h (5 Bft) 100,00 %
28.10.2020 19:32 12,2 C 10,6 C 8,9 C 85 % 1007,6 hPa 0,0 l/m 0 min 2 min 0 W/m 12,9 km/h (3 Bft) 100,00 %
28.10.2020 19:34 12,2 C 11,1 C 8,9 C 85 % 1007,6 hPa 0,0 l/m 0 min 0 min 0 W/m 22,5 km/h (4 Bft) 97,87 %
28.10.2020 19:36 12,2 C 11,1 C 9,5 C 85 % 1007,6 hPa 0,0 l/m 0 min 2 min 0 W/m 32,2 km/h (5 Bft) 95,74 %
28.10.2020 19:38 12,2 C 11,1 C 9,5 C 85 % 1007,6 hPa 0,0 l/m 0 min 2 min 0 W/m 22,5 km/h (4 Bft) 97,96 %
28.10.2020 19:40 12,2 C 11,1 C 10,0 C 85 % 1007,6 hPa 0,0 l/m 0 min 2 min 0 W/m 35,4 km/h (5 Bft) 95,74 %
28.10.2020 19:42 12,2 C 11,1 C 10,0 C 84 % 1007,5 hPa 0,0 l/m 0 min 2 min 0 W/m 32,2 km/h (5 Bft) 97,87 %
28.10.2020 19:44 12,2 C 11,1 C 10,0 C 84 % 1007,5 hPa 0,0 l/m 0 min 2 min 0 W/m 22,5 km/h (4 Bft) 97,87 %
28.10.2020 19:46 12,2 C 11,1 C 9,5 C 84 % 1007,6 hPa 0,0 l/m 0 min 2 min 0 W/m 29,0 km/h (5 Bft) 97,87 %
28.10.2020 19:48 12,2 C 10,6 C 9,5 C 85 % 1007,7 hPa 0,0 l/m 0 min 2 min 0 W/m 41,8 km/h (6 Bft) 97,87 %
28.10.2020 19:50 12,3 C 10,6 C 8,9 C 85 % 1007,5 hPa 0,0 l/m 0 min 2 min 0 W/m 29,0 km/h (5 Bft) 97,83 %
28.10.2020 19:52 12,3 C 10,6 C 9,5 C 85 % 1007,6 hPa 0,0 l/m 0 min 2 min 0 W/m 32,2 km/h (5 Bft) 97,87 %
28.10.2020 19:54 12,3 C 11,1 C 9,5 C 85 % 1007,6 hPa 0,0 l/m 0 min 2 min 0 W/m 35,4 km/h (5 Bft) 97,87 %
28.10.2020 19:56 12,3 C 11,1 C 9,5 C 85 % 1007,7 hPa 0,0 l/m 0 min 2 min 0 W/m 41,8 km/h (6 Bft) 97,62 %
28.10.2020 19:58 12,3 C 11,1 C 9,5 C 85 % 1007,7 hPa 0,0 l/m 0 min 2 min 0 W/m 29,0 km/h (5 Bft) 95,92 %
28.10.2020 20:00 12,4 C 11,7 C 9,5 C 85 % 1007,7 hPa 0,0 l/m 0 min 2 min 0 W/m 45,1 km/h (6 Bft) 97,87 %
28.10.2020 20:02 12,4 C 11,7 C 10,0 C 84 % 1007,7 hPa 0,0 l/m 0 min 2 min 0 W/m 19,3 km/h (3 Bft) 95,74 %
28.10.2020 20:04 12,4 C 11,7 C 9,5 C 84 % 1007,7 hPa 0,0 l/m 0 min 2 min 0 W/m 19,3 km/h (3 Bft) 97,87 %
28.10.2020 20:06 12,4 C 11,1 C 9,5 C 84 % 1007,6 hPa 0,0 l/m 0 min 0 min 0 W/m 29,0 km/h (5 Bft) 95,83 %
28.10.2020 20:08 12,4 C 11,7 C 10,0 C 85 % 1007,6 hPa 0,0 l/m 0 min 0 min 0 W/m 22,5 km/h (4 Bft) 97,87 %
28.10.2020 20:10 12,4 C 11,7 C 10,0 C 85 % 1007,6 hPa 0,0 l/m 0 min 0 min 0 W/m 22,5 km/h (4 Bft) 97,92 %
28.10.2020 20:12 12,4 C 11,7 C 10,0 C 85 % 1007,5 hPa 0,0 l/m 0 min 0 min 0 W/m 22,5 km/h (4 Bft) 95,35 %
28.10.2020 20:14 12,4 C 11,7 C 10,0 C 84 % 1007,4 hPa 0,0 l/m 0 min 0 min 0 W/m 32,2 km/h (5 Bft) 95,12 %
28.10.2020 20:16 12,4 C 11,7 C 10,0 C 84 % 1007,4 hPa 0,0 l/m 0 min 0 min 0 W/m 19,3 km/h (3 Bft) 97,87 %
28.10.2020 20:18 12,4 C 11,7 C 10,0 C 84 % 1007,5 hPa 0,0 l/m 0 min 0 min 0 W/m 16,1 km/h (3 Bft) 95,74 %
28.10.2020 20:20 12,4 C 11,7 C 10,0 C 84 % 1007,3 hPa 0,0 l/m 0 min 0 min 0 W/m 12,9 km/h (3 Bft) 97,87 %
28.10.2020 20:22 12,4 C 11,7 C 10,6 C 84 % 1007,3 hPa 0,0 l/m 0 min 0 min 0 W/m 25,7 km/h (4 Bft) 95,74 %
28.10.2020 20:24 12,4 C 11,7 C 10,6 C 84 % 1007,3 hPa 0,0 l/m 0 min 0 min 0 W/m 22,5 km/h (4 Bft) 97,92 %
28.10.2020 20:26 12,4 C 11,7 C 10,6 C 84 % 1007,2 hPa 0,0 l/m 0 min 0 min 0 W/m 29,0 km/h (5 Bft) 100,00 %
28.10.2020 20:28 12,4 C 11,7 C 10,6 C 84 % 1007,2 hPa 0,0 l/m 0 min 0 min 0 W/m 35,4 km/h (5 Bft) 97,92 %
28.10.2020 20:30 12,4 C 11,7 C 10,6 C 84 % 1007,2 hPa 0,0 l/m 0 min 0 min 0 W/m 25,7 km/h (4 Bft) 97,87 %
28.10.2020 20:32 12,4 C 11,7 C 10,6 C 84 % 1007,1 hPa 0,0 l/m 0 min 0 min 0 W/m 32,2 km/h (5 Bft) 95,65 %
28.10.2020 20:34 12,4 C 11,7 C 10,6 C 84 % 1007,2 hPa 0,0 l/m 0 min 0 min 0 W/m 19,3 km/h (3 Bft) 97,87 %
28.10.2020 20:36 12,4 C 11,7 C 10,6 C 84 % 1007,1 hPa 0,0 l/m 0 min 0 min 0 W/m 22,5 km/h (4 Bft) 93,62 %
28.10.2020 20:38 12,4 C 11,7 C 10,6 C 84 % 1007,1 hPa 0,0 l/m 0 min 0 min 0 W/m 29,0 km/h (5 Bft) 97,87 %
28.10.2020 20:40 12,4 C 11,7 C 10,6 C 84 % 1007,1 hPa 0,0 l/m 0 min 0 min 0 W/m 25,7 km/h (4 Bft) 97,87 %
28.10.2020 20:42 12,4 C 11,7 C 10,6 C 83 % 1007,0 hPa 0,0 l/m 0 min 0 min 0 W/m 25,7 km/h (4 Bft) 97,87 %
28.10.2020 20:44 12,4 C 11,7 C 10,6 C 83 % 1007,1 hPa 0,0 l/m 0 min 0 min 0 W/m 45,1 km/h (6 Bft) 98,18 %
28.10.2020 20:46 12,4 C 11,7 C 10,6 C 83 % 1007,1 hPa 0,0 l/m 0 min 0 min 0 W/m 35,4 km/h (5 Bft) 95,74 %
28.10.2020 20:48 12,4 C 11,7 C 10,6 C 83 % 1007,1 hPa 0,0 l/m 0 min 0 min 0 W/m 25,7 km/h (4 Bft) 95,65 %
28.10.2020 20:50 12,4 C 11,7 C 10,6 C 83 % 1007,1 hPa 0,0 l/m 0 min 0 min 0 W/m 38,6 km/h (5 Bft) 98,00 %
28.10.2020 20:52 12,4 C 11,7 C 10,6 C 83 % 1007,0 hPa 0,0 l/m 0 min 0 min 0 W/m 25,7 km/h (4 Bft) 94,44 %
28.10.2020 20:54 12,4 C 11,7 C 10,6 C 83 % 1007,0 hPa 0,0 l/m 0 min 0 min 0 W/m 29,0 km/h (5 Bft) 97,87 %
28.10.2020 20:56 12,4 C 11,7 C 10,6 C 83 % 1007,0 hPa 0,0 l/m 0 min 0 min 0 W/m 29,0 km/h (5 Bft) 97,83 %
28.10.2020 20:58 12,4 C 11,7 C 10,6 C 83 % 1007,0 hPa 0,0 l/m 0 min 0 min 0 W/m 25,7 km/h (4 Bft) 97,87 %
28.10.2020 21:00 12,4 C 11,7 C 10,6 C 83 % 1006,9 hPa 0,0 l/m 0 min 0 min 0 W/m 41,8 km/h (6 Bft) 97,87 %
28.10.2020 21:02 12,5 C 11,7 C 10,6 C 83 % 1006,9 hPa 0,0 l/m 0 min 0 min 0 W/m 29,0 km/h (5 Bft) 98,11 %
28.10.2020 21:04 12,5 C 11,7 C 10,6 C 83 % 1006,9 hPa 0,0 l/m 0 min 0 min 0 W/m 32,2 km/h (5 Bft) 95,74 %
28.10.2020 21:06 12,5 C 12,2 C 10,6 C 83 % 1006,8 hPa 0,0 l/m 0 min 0 min 0 W/m 32,2 km/h (5 Bft) 97,87 %
28.10.2020 21:08 12,5 C 12,2 C 10,6 C 83 % 1006,8 hPa 0,0 l/m 0 min 0 min 0 W/m 38,6 km/h (5 Bft) 95,74 %
28.10.2020 21:10 12,5 C 12,2 C 10,6 C 83 % 1006,8 hPa 0,0 l/m 0 min 0 min 0 W/m 38,6 km/h (5 Bft) 95,74 %
28.10.2020 21:12 12,5 C 12,2 C 10,6 C 83 % 1006,8 hPa 0,0 l/m 0 min 0 min 0 W/m 32,2 km/h (5 Bft) 95,65 %
28.10.2020 21:14 12,5 C 12,2 C 10,6 C 83 % 1006,8 hPa 0,0 l/m 0 min 0 min 0 W/m 41,8 km/h (6 Bft) 95,12 %
28.10.2020 21:16 12,6 C 12,2 C 10,6 C 83 % 1006,8 hPa 0,0 l/m 0 min 0 min 0 W/m 29,0 km/h (5 Bft) 92,45 %
28.10.2020 21:18 12,6 C 12,2 C 10,6 C 82 % 1006,8 hPa 0,0 l/m 0 min 0 min 0 W/m 35,4 km/h (5 Bft) 97,87 %
28.10.2020 21:20 12,6 C 12,2 C 10,6 C 82 % 1006,8 hPa 0,0 l/m 0 min 0 min 0 W/m 19,3 km/h (3 Bft) 97,87 %
28.10.2020 21:22 12,6 C 12,2 C 10,6 C 82 % 1006,7 hPa 0,0 l/m 0 min 0 min 0 W/m 35,4 km/h (5 Bft) 97,83 %
28.10.2020 21:24 12,6 C 12,2 C 10,6 C 82 % 1006,7 hPa 0,0 l/m 0 min 0 min 0 W/m 32,2 km/h (5 Bft) 97,87 %
28.10.2020 21:26 12,6 C 12,2 C 10,6 C 82 % 1006,7 hPa 0,0 l/m 0 min 0 min 0 W/m 29,0 km/h (5 Bft) 98,00 %
28.10.2020 21:28 12,6 C 12,2 C 10,6 C 82 % 1006,7 hPa 0,0 l/m 0 min 0 min 0 W/m 38,6 km/h (5 Bft) 97,87 %
28.10.2020 21:30 12,6 C 12,2 C 10,6 C 82 % 1006,6 hPa 0,0 l/m 0 min 0 min 0 W/m 38,6 km/h (5 Bft) 97,87 %
28.10.2020 21:32 12,6 C 11,7 C 10,0 C 82 % 1006,7 hPa 0,0 l/m 0 min 2 min 0 W/m 29,0 km/h (5 Bft) 97,30 %
28.10.2020 21:34 12,7 C 10,0 C 9,5 C 83 % 1007,1 hPa 0,2 l/m 0 min 2 min 0 W/m 29,0 km/h (5 Bft) 97,87 %
28.10.2020 21:36 12,6 C 9,4 C 8,9 C 84 % 1007,6 hPa 0,8 l/m 0 min 2 min 0 W/m 19,3 km/h (3 Bft) 97,87 %
28.10.2020 21:38 12,5 C 8,9 C 8,4 C 85 % 1007,4 hPa 0,8 l/m 0 min 2 min 0 W/m 25,7 km/h (4 Bft) 97,87 %
28.10.2020 21:40 12,3 C 8,9 C 8,4 C 86 % 1007,6 hPa 0,4 l/m 0 min 2 min 0 W/m 19,3 km/h (3 Bft) 97,87 %
28.10.2020 21:42 12,1 C 8,9 C 7,8 C 86 % 1007,6 hPa 0,4 l/m 0 min 2 min 0 W/m 9,7 km/h (2 Bft) 98,11 %
28.10.2020 21:44 12,0 C 8,9 C 7,8 C 87 % 1007,6 hPa 0,0 l/m 0 min 2 min 0 W/m 12,9 km/h (3 Bft) 97,87 %
28.10.2020 21:46 11,8 C 8,3 C 7,8 C 87 % 1007,4 hPa 0,2 l/m 0 min 2 min 0 W/m 38,6 km/h (5 Bft) 97,83 %
28.10.2020 21:48 11,5 C 8,3 C 7,8 C 87 % 1007,5 hPa 0,0 l/m 0 min 2 min 0 W/m 19,3 km/h (3 Bft) 93,62 %
28.10.2020 21:50 11,4 C 8,3 C 7,8 C 87 % 1007,5 hPa 0,0 l/m 0 min 2 min 0 W/m 19,3 km/h (3 Bft) 97,87 %
28.10.2020 21:52 11,2 C 8,3 C 7,8 C 88 % 1007,7 hPa 0,2 l/m 0 min 2 min 0 W/m 29,0 km/h (5 Bft) 98,00 %
28.10.2020 21:54 11,1 C 8,3 C 7,8 C 88 % 1007,7 hPa 0,0 l/m 0 min 2 min 0 W/m 22,5 km/h (4 Bft) 95,74 %
28.10.2020 21:56 11,0 C 8,3 C 7,8 C 89 % 1007,6 hPa 0,0 l/m 0 min 2 min 0 W/m 19,3 km/h (3 Bft) 97,96 %
28.10.2020 21:58 10,9 C 8,3 C 7,8 C 89 % 1007,7 hPa 0,0 l/m 0 min 2 min 0 W/m 3,2 km/h (1 Bft) 100,00 %
28.10.2020 22:00 10,8 C 8,3 C 7,8 C 90 % 1007,7 hPa 0,0 l/m 0 min 0 min 0 W/m 6,4 km/h (2 Bft) 95,74 %
28.10.2020 22:02 10,8 C 8,3 C 7,8 C 90 % 1007,4 hPa 0,0 l/m 0 min 0 min 0 W/m 6,4 km/h (2 Bft) 100,00 %
28.10.2020 22:04 10,7 C 8,3 C 7,8 C 90 % 1007,5 hPa 0,0 l/m 0 min 0 min 0 W/m 19,3 km/h (3 Bft) 97,87 %
28.10.2020 22:06 10,6 C 8,3 C 7,8 C 90 % 1007,4 hPa 0,0 l/m 0 min 0 min 0 W/m 12,9 km/h (3 Bft) 65,22 %
28.10.2020 22:08 10,5 C 8,3 C 7,8 C 90 % 1007,4 hPa 0,0 l/m 0 min 0 min 0 W/m 22,5 km/h (4 Bft) 88,10 %
28.10.2020 22:10 10,5 C 8,3 C 7,8 C 91 % 1007,5 hPa 0,0 l/m 0 min 0 min 0 W/m 19,3 km/h (3 Bft) 97,87 %
28.10.2020 22:12 10,4 C 8,3 C 7,8 C 91 % 1007,5 hPa 0,0 l/m 0 min 0 min 0 W/m 22,5 km/h (4 Bft) 97,87 %
28.10.2020 22:14 10,4 C 8,3 C 7,8 C 91 % 1007,5 hPa 0,0 l/m 0 min 0 min 0 W/m 12,9 km/h (3 Bft) 96,30 %
28.10.2020 22:16 10,3 C 8,3 C 7,8 C 92 % 1007,5 hPa 0,0 l/m 0 min 0 min 0 W/m 19,3 km/h (3 Bft) 100,00 %
28.10.2020 22:18 10,3 C 8,3 C 7,8 C 91 % 1007,5 hPa 0,0 l/m 0 min 0 min 0 W/m 22,5 km/h (4 Bft) 100,00 %
28.10.2020 22:20 10,3 C 8,3 C 7,8 C 92 % 1007,5 hPa 0,0 l/m 0 min 0 min 0 W/m 22,5 km/h (4 Bft) 97,87 %
28.10.2020 22:22 10,2 C 8,3 C 7,8 C 92 % 1007,4 hPa 0,0 l/m 0 min 0 min 0 W/m 12,9 km/h (3 Bft) 100,00 %
28.10.2020 22:24 10,1 C 8,3 C 7,8 C 92 % 1007,4 hPa 0,0 l/m 0 min 0 min 0 W/m 22,5 km/h (4 Bft) 97,87 %
28.10.2020 22:26 10,1 C 8,3 C 7,8 C 92 % 1007,3 hPa 0,0 l/m 0 min 0 min 0 W/m 16,1 km/h (3 Bft) 100,00 %
28.10.2020 22:28 10,0 C 8,3 C 7,8 C 92 % 1007,3 hPa 0,0 l/m 0 min 0 min 0 W/m 19,3 km/h (3 Bft) 100,00 %
28.10.2020 22:30 10,0 C 8,3 C 7,8 C 92 % 1007,4 hPa 0,0 l/m 0 min 0 min 0 W/m 25,7 km/h (4 Bft) 100,00 %
28.10.2020 22:32 10,0 C 8,3 C 7,8 C 92 % 1007,3 hPa 0,0 l/m 0 min 0 min 0 W/m 19,3 km/h (3 Bft) 100,00 %
28.10.2020 22:34 10,0 C 8,3 C 7,8 C 92 % 1007,2 hPa 0,0 l/m 0 min 0 min 0 W/m 35,4 km/h (5 Bft) 95,74 %
28.10.2020 22:36 9,9 C 8,9 C 7,8 C 92 % 1007,3 hPa 0,0 l/m 0 min 0 min 0 W/m 22,5 km/h (4 Bft) 95,74 %
28.10.2020 22:38 9,9 C 8,9 C 7,8 C 92 % 1007,2 hPa 0,0 l/m 0 min 0 min 0 W/m 25,7 km/h (4 Bft) 95,74 %
28.10.2020 22:40 9,9 C 8,9 C 7,8 C 92 % 1007,2 hPa 0,0 l/m 0 min 0 min 0 W/m 19,3 km/h (3 Bft) 97,83 %
28.10.2020 22:42 9,9 C 8,3 C 7,8 C 92 % 1007,3 hPa 0,0 l/m 0 min 0 min 0 W/m 29,0 km/h (5 Bft) 97,87 %
28.10.2020 22:44 9,9 C 8,3 C 7,8 C 93 % 1007,3 hPa 0,0 l/m 0 min 0 min 0 W/m 12,9 km/h (3 Bft) 97,87 %
28.10.2020 22:46 9,9 C 8,3 C 7,8 C 93 % 1007,4 hPa 0,0 l/m 0 min 0 min 0 W/m 12,9 km/h (3 Bft) 97,87 %
28.10.2020 22:48 9,9 C 8,3 C 7,8 C 93 % 1007,3 hPa 0,0 l/m 0 min 0 min 0 W/m 25,7 km/h (4 Bft) 97,87 %
28.10.2020 22:50 9,8 C 8,3 C 7,8 C 93 % 1007,3 hPa 0,0 l/m 0 min 0 min 0 W/m 16,1 km/h (3 Bft) 96,30 %
28.10.2020 22:52 9,8 C 8,3 C 7,8 C 93 % 1007,3 hPa 0,0 l/m 0 min 0 min 0 W/m 16,1 km/h (3 Bft) 98,00 %
28.10.2020 22:54 9,8 C 8,9 C 7,8 C 93 % 1007,3 hPa 0,0 l/m 0 min 0 min 0 W/m 19,3 km/h (3 Bft) 97,83 %
28.10.2020 22:56 9,8 C 8,3 C 7,8 C 93 % 1007,5 hPa 0,0 l/m 0 min 2 min 0 W/m 38,6 km/h (5 Bft) 97,30 %
28.10.2020 22:58 9,8 C 8,3 C 7,8 C 93 % 1007,5 hPa 0,0 l/m 0 min 2 min 0 W/m 3,2 km/h (1 Bft) 95,74 %
28.10.2020 23:00 9,8 C 8,3 C 7,8 C 93 % 1007,5 hPa 0,0 l/m 0 min 2 min 0 W/m 41,8 km/h (6 Bft) 95,74 %
28.10.2020 23:02 9,8 C 8,3 C 7,2 C 93 % 1007,5 hPa 0,0 l/m 0 min 2 min 0 W/m 32,2 km/h (5 Bft) 97,87 %
28.10.2020 23:04 9,8 C 8,3 C 7,2 C 93 % 1007,3 hPa 0,0 l/m 0 min 2 min 0 W/m 25,7 km/h (4 Bft) 97,83 %
28.10.2020 23:06 9,8 C 8,3 C 7,2 C 93 % 1007,4 hPa 0,0 l/m 0 min 2 min 0 W/m 25,7 km/h (4 Bft) 93,62 %
28.10.2020 23:08 9,8 C 8,3 C 7,2 C 93 % 1007,3 hPa 0,0 l/m 0 min 2 min 0 W/m 22,5 km/h (4 Bft) 95,74 %
28.10.2020 23:10 9,8 C 8,3 C 7,2 C 93 % 1007,3 hPa 0,0 l/m 0 min 2 min 0 W/m 3,2 km/h (1 Bft) 95,74 %
28.10.2020 23:12 9,8 C 8,3 C 7,2 C 93 % 1007,3 hPa 0,0 l/m 0 min 2 min 0 W/m 19,3 km/h (3 Bft) 95,74 %
28.10.2020 23:14 9,8 C 8,3 C 7,2 C 93 % 1007,5 hPa 0,0 l/m 0 min 2 min 0 W/m 22,5 km/h (4 Bft) 95,65 %
28.10.2020 23:16 9,8 C 8,3 C 7,2 C 93 % 1007,5 hPa 0,0 l/m 0 min 2 min 0 W/m 12,9 km/h (3 Bft) 95,74 %
28.10.2020 23:18 9,7 C 8,3 C 7,8 C 93 % 1007,5 hPa 0,0 l/m 0 min 2 min 0 W/m 29,0 km/h (5 Bft) 95,74 %
28.10.2020 23:20 9,7 C 8,3 C 7,8 C 93 % 1007,5 hPa 0,0 l/m 0 min 2 min 0 W/m 19,3 km/h (3 Bft) 92,86 %
28.10.2020 23:22 9,7 C 8,3 C 7,8 C 93 % 1007,5 hPa 0,0 l/m 0 min 2 min 0 W/m 32,2 km/h (5 Bft) 95,74 %
28.10.2020 23:24 9,8 C 8,3 C 7,8 C 93 % 1007,3 hPa 0,0 l/m 0 min 2 min 0 W/m 6,4 km/h (2 Bft) 95,74 %
28.10.2020 23:26 9,8 C 8,3 C 7,8 C 94 % 1007,2 hPa 0,2 l/m 0 min 2 min 0 W/m 29,0 km/h (5 Bft) 95,74 %
28.10.2020 23:28 9,7 C 8,3 C 7,8 C 94 % 1007,2 hPa 0,0 l/m 0 min 2 min 0 W/m 19,3 km/h (3 Bft) 97,87 %
28.10.2020 23:30 9,7 C 8,3 C 7,8 C 94 % 1007,3 hPa 0,0 l/m 0 min 2 min 0 W/m 19,3 km/h (3 Bft) 97,83 %
28.10.2020 23:32 9,7 C 8,3 C 7,8 C 94 % 1007,4 hPa 0,0 l/m 0 min 2 min 0 W/m 38,6 km/h (5 Bft) 100,00 %
28.10.2020 23:34 9,7 C 8,3 C 7,8 C 94 % 1007,4 hPa 0,2 l/m 0 min 2 min 0 W/m 22,5 km/h (4 Bft) 97,87 %
28.10.2020 23:36 9,7 C 8,3 C 7,8 C 94 % 1007,5 hPa 0,0 l/m 0 min 2 min 0 W/m 22,5 km/h (4 Bft) 94,59 %
28.10.2020 23:38 9,7 C 8,3 C 7,8 C 94 % 1007,6 hPa 0,0 l/m 0 min 2 min 0 W/m 16,1 km/h (3 Bft) 97,83 %
28.10.2020 23:40 9,7 C 8,3 C 7,8 C 94 % 1007,5 hPa 0,0 l/m 0 min 2 min 0 W/m 22,5 km/h (4 Bft) 97,87 %
28.10.2020 23:42 9,6 C 8,3 C 7,8 C 94 % 1007,6 hPa 0,0 l/m 0 min 2 min 0 W/m 19,3 km/h (3 Bft) 95,74 %
28.10.2020 23:44 9,6 C 8,3 C 7,8 C 94 % 1007,6 hPa 0,0 l/m 0 min 2 min 0 W/m 6,4 km/h (2 Bft) 95,74 %
28.10.2020 23:46 9,6 C 8,3 C 7,8 C 94 % 1007,6 hPa 0,0 l/m 0 min 2 min 0 W/m 25,7 km/h (4 Bft) 97,87 %
28.10.2020 23:48 9,6 C 8,3 C 7,8 C 94 % 1007,7 hPa 0,2 l/m 0 min 2 min 0 W/m 38,6 km/h (5 Bft) 97,87 %
28.10.2020 23:50 9,6 C 8,3 C 7,8 C 94 % 1007,6 hPa 0,0 l/m 0 min 2 min 0 W/m 35,4 km/h (5 Bft) 82,61 %
28.10.2020 23:52 9,6 C 8,3 C 7,8 C 94 % 1007,7 hPa 0,0 l/m 0 min 2 min 0 W/m 29,0 km/h (5 Bft) 73,58 %
28.10.2020 23:54 9,6 C 8,3 C 7,8 C 95 % 1007,5 hPa 0,0 l/m 0 min 2 min 0 W/m 29,0 km/h (5 Bft) 97,96 %
28.10.2020 23:56 9,6 C 7,8 C 7,2 C 95 % 1007,5 hPa 0,2 l/m 0 min 2 min 0 W/m 25,7 km/h (4 Bft) 97,87 %
28.10.2020 23:58 9,5 C 7,8 C 7,2 C 95 % 1007,6 hPa 0,0 l/m 0 min 2 min 0 W/m 45,1 km/h (6 Bft) 100,00 %
_ Min-Zeit 23:58 23:56 23:02 13:50 00:02 - - - - 02:36 22:06
Minimum _ 9,5 C 7,8 C 7,2 C 69 % 1003,2 hPa - - - - 0,0 km/h (0 Bft) 65,22 %
_ Max-Zeit 13:36 12:44 12:34 06:00 12:18 21:36 08:04 07:24 13:22 13:24 00:02
Maximum _ 15,1 C 18,9 C 13,9 C 96 % 1009,2 hPa 0,8 l/m 2 min 2 min 552 W/m 57,9 km/h
O (7 Bft)
100,00 %
Durchschnitt _ 12,4 C 12,0 C 10,4 C 85 % 1007,1 hPa #4,0 l/m #4:00 h #2:52 h 168 W/m 21,2 km/h (4 Bft) 97,34 %
© 2020 W. Hausmann